KC5DAQ-24 Weather Reports


Display with metric or nautical units.
time (UTC)temp
F
wind
direction
speed
MPH
gust
MPH
rain 1hr
in
rain 24hr
in
rain mn
in
humidity
%
barometer
mb
20260906211726 87 275 2.0 7.0 0.00 0.00 0.00 73 1011.1
20260906211624 87 276 4.0 7.0 0.00 0.00 0.00 73 1011.2
20260906211525 87 252 5.0 7.0 0.00 0.00 0.00 73 1011.2
20260906211425 87 271 3.0 7.0 0.00 0.00 0.00 73 1011.2
20260906211324 87 278 2.0 6.0 0.00 0.00 0.00 73 1011.2
20260906211224 87 252 2.0 5.0 0.00 0.00 0.00 73 1011.2
20260906211125 87 223 3.0 5.0 0.00 0.00 0.00 73 1011.2
20260906211023 87 224 4.0 5.0 0.00 0.00 0.00 73 1011.2
20260906210925 87 224 4.0 5.0 0.00 0.00 0.00 73 1011.2
20260906210825 87 221 3.0 5.0 0.00 0.00 0.00 73 1011.3
20260906210725 87 237 2.0 5.0 0.00 0.00 0.00 74 1011.3
20260906210624 87 252 2.0 5.0 0.00 0.00 0.00 74 1011.3
20260906210524 87 278 2.0 5.0 0.00 0.00 0.00 74 1011.3
20260906210424 87 300 2.0 5.0 0.00 0.00 0.00 74 1011.3
20260906210325 87 300 3.0 5.0 0.00 0.00 0.00 76 1011.3
20260906210225 87 289 4.0 5.0 0.00 0.00 0.00 76 1011.3
20260906210124 87 281 2.0 5.0 0.00 0.00 0.00 77 1011.2
20260906210024 87 303 0.0 6.0 0.00 0.00 0.00 78 1011.2
20260906205925 86 305 0.0 6.0 0.00 0.00 0.00 78 1011.1
20260906205825 86 305 0.0 6.0 0.00 0.00 0.00 77 1011.1
20260906205724 86 305 1.0 6.0 0.00 0.00 0.00 77 1011.1
20260906205625 87 305 1.0 6.0 0.00 0.00 0.00 79 1011.1
20260906205524 87 305 1.0 6.0 0.00 0.00 0.00 79 1011.1
20260906205424 86 299 4.0 6.0 0.00 0.00 0.00 79 1011.1
20260906205325 86 299 4.0 9.0 0.00 0.00 0.00 79 1011.2
20260906205225 86 299 4.0 9.0 0.00 0.00 0.00 79 1011.2
20260906205123 86 300 4.0 9.0 0.00 0.00 0.00 79 1011.2
20260906205023 86 269 2.0 9.0 0.00 0.00 0.00 79 1011.2
20260906204924 85 251 1.0 9.0 0.00 0.00 0.00 79 1011.2
20260906204823 85 251 2.0 9.0 0.00 0.00 0.00 79 1011.3
20260906204724 85 251 3.0 9.0 0.00 0.00 0.00 79 1011.3
20260906204624 85 251 4.0 11.0 0.00 0.00 0.00 79 1011.3
20260906204525 85 285 4.0 11.0 0.00 0.00 0.00 79 1011.4
20260906204423 85 283 4.0 11.0 0.00 0.00 0.00 80 1011.4
20260906204324 85 288 4.0 11.0 0.00 0.00 0.00 79 1011.4
20260906204225 85 269 6.0 11.0 0.00 0.00 0.00 80 1011.4
20260906204125 85 265 6.0 11.0 0.00 0.00 0.00 80 1011.5
20260906204023 85 264 6.0 11.0 0.00 0.00 0.00 80 1011.5
20260906203924 85 233 5.0 11.0 0.00 0.00 0.00 80 1011.6
20260906203824 85 252 6.0 11.0 0.00 0.00 0.00 80 1011.6
20260906203723 85 281 6.0 11.0 0.00 0.00 0.00 80 1011.6
20260906203624 85 268 4.0 11.0 0.00 0.00 0.00 80 1011.6
20260906203524 85 282 5.0 11.0 0.00 0.00 0.00 80 1011.7
20260906203423 85 226 6.0 11.0 0.00 0.00 0.00 80 1011.7
20260906203325 86 274 5.0 10.0 0.00 0.00 0.00 79 1011.6
20260906203223 86 274 5.0 10.0 0.00 0.00 0.00 79 1011.6
20260906203125 86 274 5.0 10.0 0.00 0.00 0.00 79 1011.7
20260906203024 86 274 5.0 10.0 0.00 0.00 0.00 79 1011.6
20260906202923 86 257 6.0 10.0 0.00 0.00 0.00 79 1011.6
20260906202824 86 276 6.0 10.0 0.00 0.00 0.00 79 1011.6
20260906202723 86 247 6.0 10.0 0.00 0.00 0.00 79 1011.5
20260906202623 86 269 4.0 10.0 0.00 0.00 0.00 80 1011.4
20260906202523 85 272 4.0 6.0 0.00 0.00 0.00 80 1011.4
20260906202423 85 296 4.0 6.0 0.00 0.00 0.00 80 1011.4
20260906202323 85 234 4.0 6.0 0.00 0.00 0.00 80 1011.4
20260906202222 85 258 5.0 6.0 0.00 0.00 0.00 81 1011.4
20260906202124 85 250 5.0 6.0 0.00 0.00 0.00 81 1011.4
20260906202022 85 212 4.0 6.0 0.00 0.00 0.00 81 1011.4
20260906201924 85 195 4.0 6.0 0.00 0.00 0.00 81 1011.4
20260906201824 85 195 5.0 6.0 0.00 0.00 0.00 81 1011.4
20260906201723 85 244 4.0 7.0 0.00 0.00 0.00 81 1011.4
20260906201623 85 244 4.0 7.0 0.00 0.00 0.00 81 1011.4
20260906201523 85 244 4.0 7.0 0.00 0.00 0.00 81 1011.4
20260906201424 85 245 4.0 7.0 0.00 0.00 0.00 81 1011.5
20260906201322 85 230 4.0 7.0 0.00 0.00 0.00 80 1011.4
20260906201224 85 210 4.0 7.0 0.00 0.00 0.00 81 1011.5
20260906201123 85 224 4.0 7.0 0.00 0.00 0.00 80 1011.4
20260906201023 85 206 4.0 7.0 0.00 0.00 0.00 79 1011.4
20260906200923 85 192 5.0 7.0 0.00 0.00 0.00 80 1011.3
20260906200823 85 185 4.0 7.0 0.00 0.00 0.00 80 1011.3
20260906200723 85 224 2.0 6.0 0.00 0.00 0.00 81 1011.3
20260906200623 85 268 2.0 6.0 0.00 0.00 0.00 81 1011.3
20260906200522 85 266 3.0 6.0 0.00 0.00 0.00 81 1011.2
20260906200423 85 266 3.0 6.0 0.00 0.00 0.00 82 1011.2
20260906200322 84 216 2.0 6.0 0.00 0.00 0.00 82 1011.2
20260906200224 84 171 3.0 6.0 0.00 0.00 0.00 82 1011.1
20260906200123 84 178 4.0 6.0 0.00 0.00 0.00 81 1011.2
20260906200023 84 189 3.0 6.0 0.00 0.00 0.00 82 1011.2
20260906195925 84 240 4.0 6.0 0.00 0.00 0.00 82 1011.2
20260906195822 84 214 4.0 6.0 0.00 0.00 0.00 82 1011.2
20260906195723 84 220 3.0 5.0 0.00 0.00 0.00 83 1011.3
20260906195622 84 252 4.0 6.0 0.00 0.00 0.00 83 1011.3
20260906195523 83 244 3.0 6.0 0.00 0.00 0.00 83 1011.3
20260906195424 83 243 3.0 6.0 0.00 0.00 0.00 83 1011.4
20260906195322 83 221 3.0 7.0 0.00 0.00 0.00 84 1011.5
20260906195223 83 221 3.0 7.0 0.00 0.00 0.00 84 1011.5
20260906195122 83 221 3.0 7.0 0.00 0.00 0.00 84 1011.6
20260906195023 83 221 3.0 7.0 0.00 0.00 0.00 84 1011.5
20260906194922 83 0 3.0 9.0 0.00 0.00 0.00 84 1011.6
20260906194822 83 0 4.0 9.0 0.00 0.00 0.00 84 1011.7
20260906194722 83 0 4.0 9.0 0.00 0.00 0.00 83 1011.7
20260906194622 83 0 4.0 9.0 0.00 0.00 0.00 83 1011.8
20260906194522 83 0 4.0 9.0 0.00 0.00 0.00 83 1011.9
20260906194421 83 0 5.0 11.0 0.00 0.00 0.00 84 1011.9
20260906194322 83 233 4.0 11.0 0.00 0.00 0.00 84 1011.8
20260906194222 83 274 4.0 11.0 0.00 0.00 0.00 84 1011.9
20260906194122 83 302 6.0 11.0 0.00 0.00 0.00 84 1012.0
20260906194023 83 305 6.0 11.0 0.00 0.00 0.00 84 1012.0
20260906193922 83 271 5.0 11.0 0.00 0.00 0.00 84 1012.0
20260906193821 83 290 5.0 11.0 0.00 0.00 0.00 84 1012.0
20260906193721 83 282 5.0 11.0 0.00 0.00 0.00 84 1012.0
20260906193623 83 259 5.0 12.0 0.00 0.00 0.00 84 1012.0
20260906193521 83 283 6.0 13.0 0.00 0.00 0.00 84 1012.1
20260906193421 83 259 5.0 13.0 0.00 0.00 0.00 84 1012.1
20260906193321 83 268 4.0 13.0 0.00 0.00 0.00 84 1012.1
20260906193221 82 275 5.0 13.0 0.00 0.00 0.00 84 1012.2
20260906193121 82 285 6.0 13.0 0.00 0.00 0.00 84 1012.2
20260906193021 82 288 7.0 13.0 0.00 0.00 0.00 84 1012.2
20260906192922 82 289 7.0 13.0 0.00 0.00 0.00 84 1012.3
20260906192821 82 252 8.0 13.0 0.00 0.00 0.00 84 1012.3
20260906192723 82 220 9.0 13.0 0.00 0.00 0.00 84 1012.3
20260906192623 82 243 8.0 13.0 0.00 0.00 0.00 84 1012.4
20260906192521 82 264 5.0 12.0 0.00 0.00 0.00 86 1012.4
20260906192422 82 230 4.0 9.0 0.00 0.00 0.00 86 1012.4
20260906192321 82 223 4.0 9.0 0.00 0.00 0.00 86 1012.4
20260906192222 82 245 5.0 9.0 0.00 0.00 0.00 86 1012.4
20260906192122 82 278 5.0 9.0 0.00 0.00 0.00 87 1012.5
20260906192021 82 234 4.0 9.0 0.00 0.00 0.00 87 1012.4
20260906191923 82 245 5.0 9.0 0.00 0.00 0.00 86 1012.5
20260906191821 82 216 4.0 9.0 0.00 0.00 0.00 87 1012.5
20260906191721 82 227 4.0 9.0 0.00 0.00 0.00 87 1012.4
20260906191621 82 234 6.0 9.0 0.00 0.00 0.00 87 1012.6
20260906191522 82 226 6.0 7.0 0.00 0.00 0.00 87 1012.6
20260906191422 82 214 5.0 9.0 0.00 0.00 0.00 86 1012.6
20260906191322 82 214 5.0 9.0 0.00 0.00 0.00 86 1012.7
20260906191222 82 214 5.0 9.0 0.00 0.00 0.00 86 1012.6
20260906191123 82 224 4.0 9.0 0.00 0.00 0.00 87 1012.6
20260906191022 82 227 2.0 9.0 0.00 0.00 0.00 87 1012.6
20260906190921 82 221 2.0 9.0 0.00 0.00 0.00 87 1012.6
20260906190821 82 224 3.0 9.0 0.00 0.00 0.00 87 1012.6
20260906190721 82 237 6.0 9.0 0.00 0.00 0.00 86 1012.6
20260906190621 82 214 6.0 9.0 0.00 0.00 0.00 86 1012.7
20260906190522 82 227 6.0 9.0 0.00 0.00 0.00 87 1012.6
20260906190422 82 203 4.0 7.0 0.00 0.00 0.00 87 1012.6
20260906190321 82 254 2.0 6.0 0.00 0.00 0.00 87 1012.6
20260906190221 82 254 3.0 6.0 0.00 0.00 0.00 87 1012.6
20260906190120 82 255 3.0 6.0 0.00 0.00 0.00 87 1012.6
20260906190021 82 255 4.0 6.0 0.00 0.00 0.00 88 1012.6
20260906185922 82 258 4.0 6.0 0.00 0.00 0.00 88 1012.6
20260906185821 82 230 3.0 6.0 0.00 0.00 0.00 88 1012.6
20260906185720 82 228 4.0 6.0 0.00 0.00 0.00 88 1012.6
20260906185622 82 226 4.0 6.0 0.00 0.00 0.00 88 1012.6
20260906185520 82 226 4.0 6.0 0.00 0.00 0.00 88 1012.6
20260906185422 82 193 3.0 4.0 0.00 0.00 0.00 88 1012.7
20260906185320 82 195 2.0 4.0 0.00 0.00 0.00 88 1012.6
20260906185222 82 180 2.0 3.0 0.00 0.00 0.00 88 1012.6
20260906185120 82 182 2.0 3.0 0.00 0.00 0.00 88 1012.7
20260906185022 82 180 1.0 4.0 0.00 0.00 0.00 88 1012.7
20260906184920 82 182 0.0 4.0 0.00 0.00 0.00 88 1012.7
20260906184820 82 182 0.0 4.0 0.00 0.00 0.00 88 1012.7
20260906184721 82 182 0.0 4.0 0.00 0.00 0.00 88 1012.7
20260906184620 82 182 0.0 5.0 0.00 0.00 0.00 87 1012.7
20260906184522 82 182 0.0 5.0 0.00 0.00 0.00 88 1012.8
20260906184421 82 183 0.0 5.0 0.00 0.00 0.00 88 1012.7
20260906184321 82 185 1.0 5.0 0.00 0.00 0.00 87 1012.8
20260906184222 82 179 2.0 5.0 0.00 0.00 0.00 87 1012.8
20260906184122 82 172 2.0 5.0 0.00 0.00 0.00 87 1012.7
20260906184020 82 169 2.0 5.0 0.00 0.00 0.00 87 1012.8
20260906183921 82 169 2.0 5.0 0.00 0.00 0.00 86 1012.8
20260906183820 82 169 3.0 5.0 0.00 0.00 0.00 86 1012.8
20260906183722 82 179 2.0 5.0 0.00 0.00 0.00 87 1012.8
20260906183622 82 147 1.0 5.0 0.00 0.00 0.00 87 1012.8
20260906183521 82 113 1.0 5.0 0.00 0.00 0.00 87 1012.8
20260906183421 82 107 3.0 5.0 0.00 0.00 0.00 86 1012.7
20260906183320 82 107 3.0 5.0 0.00 0.00 0.00 86 1012.7
20260906183220 83 117 1.0 5.0 0.00 0.00 0.00 86 1012.7
20260906183119 83 118 1.0 5.0 0.00 0.00 0.00 85 1012.8
20260906183019 83 118 2.0 5.0 0.00 0.00 0.00 85 1012.8
20260906182920 83 109 2.0 5.0 0.00 0.00 0.00 85 1012.7
20260906182821 83 0 2.0 5.0 0.00 0.00 0.00 85 1012.7
20260906182704 83 116 3.0 5.0 0.00 0.00 0.00 85 1012.6
20260906182604 83 116 3.0 5.0 0.00 0.00 0.00 85 1012.6
20260906182504 83 116 3.0 5.0 0.00 0.00 0.00 85 1012.5
20260906182403 83 116 3.0 5.0 0.00 0.00 0.00 85 1012.6
20260906182232 83 120 3.0 5.0 0.00 0.00 0.00 85 1012.6
20260906182132 83 123 2.0 5.0 0.00 0.00 0.00 85 1012.6
20260906182032 83 128 3.0 5.0 0.00 0.00 0.00 85 1012.6
20260906181932 83 120 3.0 5.0 0.00 0.00 0.00 84 1012.7
20260906181833 83 120 3.0 4.0 0.00 0.00 0.00 84 1012.6
20260906181731 83 118 3.0 4.0 0.00 0.00 0.00 84 1012.6
20260906181631 83 118 2.0 4.0 0.00 0.00 0.00 84 1012.7
20260906181532 83 117 2.0 4.0 0.00 0.00 0.00 84 1012.6
20260906181433 83 117 2.0 4.0 0.00 0.00 0.00 84 1012.6
20260906181333 83 117 2.0 4.0 0.00 0.00 0.00 84 1012.6
20260906181233 83 117 2.0 4.0 0.00 0.00 0.00 84 1012.6
20260906181131 83 117 3.0 4.0 0.00 0.00 0.00 83 1012.6
20260906181031 83 117 3.0 4.0 0.00 0.00 0.00 83 1012.6
20260906180932 84 117 3.0 4.0 0.00 0.00 0.00 83 1012.6
20260906180833 84 117 2.0 4.0 0.00 0.00 0.00 83 1012.6
20260906180732 84 120 2.0 4.0 0.00 0.00 0.00 83 1012.6
20260906180631 84 120 2.0 4.0 0.00 0.00 0.00 83 1012.6
20260906180531 84 120 1.0 4.0 0.00 0.00 0.00 84 1012.8
20260906180433 84 0 1.0 4.0 0.00 0.00 0.00 84 1012.7
20260906180333 84 0 1.0 4.0 0.00 0.00 0.00 84 1012.8
20260906180231 84 0 1.0 4.0 0.00 0.00 0.00 84 1012.7
20260906180132 84 0 1.0 4.0 0.00 0.00 0.00 83 1012.7
20260906180033 84 0 1.0 4.0 0.00 0.00 0.00 84 1012.7
20260906175933 83 0 2.0 4.0 0.00 0.00 0.00 84 1012.7
20260906175832 83 0 2.0 4.0 0.00 0.00 0.00 84 1012.6
20260906175733 83 0 2.0 4.0 0.00 0.00 0.00 84 1012.6
20260906175634 83 121 3.0 4.0 0.00 0.00 0.00 84 1012.6
20260906175532 83 121 3.0 4.0 0.00 0.00 0.00 85 1012.6
20260906175432 83 121 2.0 4.0 0.00 0.00 0.00 85 1012.6
20260906175331 83 118 1.0 5.0 0.00 0.00 0.00 85 1012.5
20260906175231 83 124 0.0 5.0 0.00 0.00 0.00 86 1012.7
20260906175131 83 134 1.0 5.0 0.00 0.00 0.00 86 1012.7
20260906175033 82 130 1.0 5.0 0.00 0.00 0.00 86 1012.8
20260906174933 82 128 1.0 5.0 0.00 0.00 0.00 86 1012.8
20260906174833 82 124 2.0 6.0 0.00 0.00 0.00 86 1012.8
20260906174731 82 123 2.0 6.0 0.00 0.00 0.00 86 1012.8
20260906174631 82 120 3.0 6.0 0.00 0.00 0.00 86 1012.8
20260906174530 82 120 3.0 6.0 0.00 0.00 0.00 86 1012.7
20260906174427 82 118 3.0 6.0 0.00 0.00 0.00 86 1012.7
20260906174327 82 117 2.0 6.0 0.00 0.00 0.00 87 1012.7
20260906174227 82 127 2.0 6.0 0.00 0.00 0.00 87 1012.7
20260906174124 82 128 3.0 6.0 0.00 0.00 0.00 87 1012.6
20260906174022 81 100 3.0 6.0 0.00 0.00 0.00 86 1012.6
20260906173921 81 102 4.0 6.0 0.00 0.00 0.00 86 1012.7
20260906173821 81 100 3.0 6.0 0.00 0.00 0.00 87 1012.7
20260906173719 81 145 3.0 6.0 0.00 0.00 0.00 87 1012.7
20260906173619 81 111 4.0 7.0 0.00 0.00 0.00 87 1012.8
20260906173519 81 0 4.0 7.0 0.00 0.00 0.00 87 1012.8
20260906173419 81 0 3.0 9.0 0.00 0.00 0.00 87 1012.8
20260906173320 81 0 3.0 9.0 0.00 0.00 0.00 88 1012.8
20260906173220 81 0 2.0 9.0 0.00 0.00 0.00 87 1012.9
20260906173119 81 0 3.0 9.0 0.00 0.00 0.00 88 1012.9
20260906173018 81 0 3.0 9.0 0.00 0.00 0.00 87 1013.0
20260906172919 81 0 4.0 9.0 0.00 0.00 0.00 87 1012.9
20260906172820 81 0 4.0 9.0 0.00 0.00 0.00 87 1012.9
20260906172718 81 0 4.0 9.0 0.00 0.00 0.00 87 1012.9
20260906172618 81 0 5.0 9.0 0.00 0.00 0.00 86 1012.8
20260906172518 81 0 6.0 10.0 0.00 0.00 0.00 86 1012.8
20260906172418 81 0 5.0 10.0 0.00 0.00 0.00 86 1012.8
20260906172318 81 0 4.0 10.0 0.00 0.00 0.00 87 1012.8
20260906172219 81 90 4.0 10.0 0.00 0.00 0.00 86 1012.8
20260906172119 82 107 4.0 10.0 0.00 0.00 0.00 85 1012.8
20260906172019 82 107 4.0 10.0 0.00 0.00 0.00 85 1012.9
20260906171919 82 107 4.0 10.0 0.00 0.00 0.00 85 1012.9
20260906171819 82 107 4.0 10.0 0.00 0.00 0.00 85 1012.8
20260906171720 82 87 5.0 10.0 0.00 0.00 0.00 85 1012.8
20260906171619 82 110 6.0 10.0 0.00 0.00 0.00 84 1012.9
20260906171518 82 89 7.0 9.0 0.00 0.00 0.00 84 1012.9
20260906171419 83 92 5.0 9.0 0.00 0.00 0.00 84 1012.8
20260906171319 83 92 5.0 9.0 0.00 0.00 0.00 84 1012.9
20260906171219 83 92 6.0 9.0 0.00 0.00 0.00 84 1012.8
20260906171118 83 110 7.0 9.0 0.00 0.00 0.00 84 1012.8
20260906171019 84 128 6.0 9.0 0.00 0.00 0.00 83 1012.9
20260906170919 84 128 6.0 9.0 0.00 0.00 0.00 83 1012.9
20260906170820 84 96 6.0 9.0 0.00 0.00 0.00 83 1013.0
20260906170719 84 93 5.0 7.0 0.00 0.00 0.00 84 1013.0
20260906170619 84 92 5.0 7.0 0.00 0.00 0.00 84 1013.0
20260906170523 84 97 5.0 7.0 0.00 0.00 0.00 84 1013.0
20260906170419 84 125 4.0 6.0 0.00 0.00 0.00 84 1013.0
20260906170319 84 176 3.0 4.0 0.00 0.00 0.00 84 1013.0
20260906170217 85 176 3.0 3.0 0.00 0.00 0.00 82 1012.9
20260906170119 85 176 2.0 3.0 0.00 0.00 0.00 82 1013.0
20260906170019 85 176 2.0 3.0 0.00 0.00 0.00 82 1013.0
20260906165919 85 176 2.0 3.0 0.00 0.00 0.00 82 1013.1
20260906165818 85 176 2.0 3.0 0.00 0.00 0.00 81 1013.0
20260906165719 85 178 2.0 3.0 0.00 0.00 0.00 81 1013.0
20260906165619 85 178 1.0 3.0 0.00 0.00 0.00 81 1013.0
20260906165518 85 178 0.0 2.0 0.00 0.00 0.00 81 1012.9
20260906165418 85 179 0.0 2.0 0.00 0.00 0.00 81 1012.8
20260906165318 85 179 0.0 2.0 0.00 0.00 0.00 82 1012.8
20260906165218 85 179 0.0 2.0 0.00 0.00 0.00 81 1012.8
20260906165118 85 179 0.0 2.0 0.00 0.00 0.00 82 1012.8
20260906165019 85 179 0.0 2.0 0.00 0.00 0.00 82 1012.7
20260906164918 85 179 0.0 3.0 0.00 0.00 0.00 82 1012.8
20260906164819 85 179 0.0 5.0 0.00 0.00 0.00 82 1012.8
20260906164718 85 179 0.0 5.0 0.00 0.00 0.00 82 1012.8
20260906164619 85 179 0.0 5.0 0.00 0.00 0.00 82 1012.8
20260906164518 85 179 0.0 5.0 0.00 0.00 0.00 82 1012.8
20260906164419 85 179 0.0 5.0 0.00 0.00 0.00 82 1012.8
20260906164318 85 179 0.0 5.0 0.00 0.00 0.00 82 1012.8
20260906164219 85 179 0.0 5.0 0.00 0.00 0.00 82 1012.8
20260906164118 85 179 1.0 5.0 0.00 0.00 0.00 82 1012.8
20260906164017 85 179 2.0 5.0 0.00 0.00 0.00 81 1012.8
20260906163918 85 179 3.0 5.0 0.00 0.00 0.00 81 1012.8
20260906163818 85 179 3.0 4.0 0.00 0.00 0.00 82 1012.8
20260906163718 85 179 3.0 4.0 0.00 0.00 0.00 82 1012.9
20260906163618 85 179 2.0 4.0 0.00 0.00 0.00 82 1012.9
20260906163517 85 179 3.0 4.0 0.00 0.00 0.00 82 1012.8
20260906163417 85 179 3.0 4.0 0.00 0.00 0.00 81 1012.9
20260906163317 85 178 3.0 4.0 0.00 0.00 0.00 81 1012.9
20260906163218 85 178 3.0 3.0 0.00 0.00 0.00 83 1012.8
20260906163118 85 178 2.0 3.0 0.00 0.00 0.00 83 1012.8
20260906163018 85 178 2.0 3.0 0.00 0.00 0.00 83 1012.8
20260906162919 84 178 1.0 3.0 0.00 0.00 0.00 84 1012.8
20260906162818 84 178 1.0 3.0 0.00 0.00 0.00 84 1012.8
20260906162719 84 178 1.0 3.0 0.00 0.00 0.00 84 1012.8
20260906162618 84 178 1.0 3.0 0.00 0.00 0.00 84 1012.9
20260906162517 84 178 2.0 3.0 0.00 0.00 0.00 84 1012.8
20260906162418 85 178 2.0 3.0 0.00 0.00 0.00 84 1012.9
20260906162319 85 178 2.0 3.0 0.00 0.00 0.00 84 1012.8
20260906162218 85 178 2.0 3.0 0.00 0.00 0.00 84 1012.8
20260906162117 85 178 2.0 3.0 0.00 0.00 0.00 84 1012.8
20260906162018 85 172 1.0 3.0 0.00 0.00 0.00 85 1012.8
20260906161918 85 178 1.0 2.0 0.00 0.00 0.00 85 1012.9
20260906161818 85 179 1.0 2.0 0.00 0.00 0.00 85 1012.8
20260906161718 84 175 1.0 2.0 0.00 0.00 0.00 84 1012.8
20260906161619 0 0.0 0.0 0.00 0.00 0.00 1012.8
20260906161518 0 0.0 0.0 0.00 0.00 0.00 1012.8
20260906161418 0 0.0 0.0 0.00 0.00 0.00 1012.8
20260906161316 0 0.0 0.0 0.00 0.00 0.00 1012.8
20260906161216 0 0.0 0.0 0.00 0.00 0.00 1012.8
20260906161116 0 0.0 0.0 0.00 0.00 0.00 1012.8
20260906161016 0 0.0 0.0 0.00 0.00 0.00 1012.8
20260906160916 0 0.0 0.0 0.00 0.00 0.00 1012.8
20260906160814 0 0.0 0.0 0.00 0.00 0.00 1012.8
20260906160714 87 175 0.0 0.0 0.00 0.00 0.00 77 1012.9
20260906160615 87 175 0.0 0.0 0.00 0.00 0.00 77 1012.8
20260906160514 87 175 0.0 0.0 0.00 0.00 0.00 77 1012.9
20260906160415 87 175 0.0 0.0 0.00 0.00 0.00 77 1012.8
20260906160314 87 175 0.0 0.0 0.00 0.00 0.00 77 1012.8
20260906160212 87 175 0.0 0.0 0.00 0.00 0.00 77 1012.9
20260906160113 87 175 0.0 0.0 0.00 0.00 0.00 77 1012.8
20260906160015 87 175 0.0 0.0 0.00 0.00 0.00 77 1012.8
20260906155912 87 175 0.0 0.0 0.00 0.00 0.00 77 1012.8
20260906155813 87 175 0.0 0.0 0.00 0.00 0.00 77 1012.8
20260906155713 87 175 0.0 0.0 0.00 0.00 0.00 77 1012.8
20260906155611 87 175 0.0 0.0 0.00 0.00 0.00 77 1012.7
20260906155510 87 175 0.0 0.0 0.00 0.00 0.00 77 1012.8
20260906155411 86 175 0.0 0.0 0.00 0.00 0.00 78 1012.8
20260906155311 86 175 0.0 0.0 0.00 0.00 0.00 77 1012.8
20260906155211 86 175 0.0 0.0 0.00 0.00 0.00 77 1012.7
20260906155111 86 175 0.0 0.0 0.00 0.00 0.00 78 1012.8
20260906155011 86 175 0.0 0.0 0.00 0.00 0.00 78 1012.8
20260906154911 86 175 0.0 0.0 0.00 0.00 0.00 78 1012.8
20260906154810 86 175 0.0 0.0 0.00 0.00 0.00 78 1012.9
20260906154711 86 175 0.0 0.0 0.00 0.00 0.00 78 1012.9
20260906154612 86 175 0.0 0.0 0.00 0.00 0.00 78 1012.8
20260906154510 86 175 0.0 0.0 0.00 0.00 0.00 78 1012.8
20260906154411 86 175 0.0 0.0 0.00 0.00 0.00 79 1012.8
20260906154312 86 175 0.0 0.0 0.00 0.00 0.00 79 1012.8
20260906154211 86 175 0.0 0.0 0.00 0.00 0.00 79 1012.8
20260906154110 86 175 0.0 0.0 0.00 0.00 0.00 79 1012.8
20260906154011 86 175 0.0 0.0 0.00 0.00 0.00 79 1012.8
20260906153912 86 180 0.0 0.0 0.00 0.00 0.00 79 1012.8
20260906153811 86 180 0.0 0.0 0.00 0.00 0.00 79 1012.8
20260906153711 86 180 0.0 0.0 0.00 0.00 0.00 79 1012.7
20260906153611 86 180 0.0 0.0 0.00 0.00 0.00 79 1012.8
20260906153510 86 180 0.0 2.0 0.00 0.00 0.00 80 1012.7
20260906153412 86 188 0.0 3.0 0.00 0.00 0.00 80 1012.7
20260906153311 86 188 0.0 3.0 0.00 0.00 0.00 80 1012.7
20260906153211 86 188 0.0 3.0 0.00 0.00 0.00 80 1012.7
20260906153110 86 189 0.0 3.0 0.00 0.00 0.00 79 1012.7
20260906153011 86 189 0.0 3.0 0.00 0.00 0.00 79 1012.7
20260906152911 86 189 0.0 3.0 0.00 0.00 0.00 79 1012.8
20260906152811 86 189 0.0 3.0 0.00 0.00 0.00 79 1012.8
20260906152711 86 189 1.0 3.0 0.00 0.00 0.00 79 1012.8
20260906152612 86 189 1.0 3.0 0.00 0.00 0.00 79 1012.8
20260906152511 86 189 2.0 3.0 0.00 0.00 0.00 79 1012.8
20260906152410 87 189 1.0 3.0 0.00 0.00 0.00 79 1012.8
20260906152309 87 189 1.0 4.0 0.00 0.00 0.00 79 1012.8
20260906152211 87 189 0.0 4.0 0.00 0.00 0.00 79 1012.8
20260906152110 87 189 1.0 4.0 0.00 0.00 0.00 79 1012.8
20260906152011 87 189 1.0 4.0 0.00 0.00 0.00 79 1012.7
20260906151911 87 189 1.0 4.0 0.00 0.00 0.00 79 1012.7
20260906151811 87 189 1.0 4.0 0.00 0.00 0.00 79 1012.7
20260906151710 87 189 1.0 4.0 0.00 0.00 0.00 79 1012.8
20260906151611 86 190 2.0 4.0 0.00 0.00 0.00 79 1012.7
20260906151510 86 190 2.0 4.0 0.00 0.00 0.00 78 1012.7
20260906151411 87 190 2.0 4.0 0.00 0.00 0.00 79 1012.7
20260906151305 87 189 0.0 4.0 0.00 0.00 0.00 80 1012.7
20260906151204 87 189 0.0 4.0 0.00 0.00 0.00 80 1012.8
20260906151103 87 189 0.0 4.0 0.00 0.00 0.00 79 1012.7
20260906151002 87 189 1.0 4.0 0.00 0.00 0.00 79 1012.7
20260906150902 87 189 2.0 4.0 0.00 0.00 0.00 79 1012.7
20260906150802 87 192 2.0 4.0 0.00 0.00 0.00 79 1012.7
20260906150702 88 195 1.0 4.0 0.00 0.00 0.00 79 1012.7
20260906150602 88 196 1.0 4.0 0.00 0.00 0.00 79 1012.7
20260906150502 87 196 1.0 4.0 0.00 0.00 0.00 79 1012.6
20260906150403 87 199 0.0 4.0 0.00 0.00 0.00 80 1012.6
20260906150303 87 199 1.0 4.0 0.00 0.00 0.00 79 1012.6
20260906150203 87 197 2.0 4.0 0.00 0.00 0.00 79 1012.7
20260906150103 87 197 2.0 4.0 0.00 0.00 0.00 79 1012.7
20260906150004 87 199 2.0 4.0 0.00 0.00 0.00 80 1012.6
20260906145904 87 223 2.0 3.0 0.00 0.00 0.00 81 1012.7
20260906145803 87 223 2.0 2.0 0.00 0.00 0.00 81 1012.7
20260906145703 87 209 0.0 1.0 0.00 0.00 0.00 81 1012.6
20260906145603 87 209 0.0 1.0 0.00 0.00 0.00 81 1012.7
20260906145505 87 209 0.0 1.0 0.00 0.00 0.00 81 1012.7
20260906145402 87 209 0.0 2.0 0.00 0.00 0.00 81 1012.7
20260906145306 87 207 0.0 2.0 0.00 0.00 0.00 81 1012.7
20260906145202 87 209 0.0 2.0 0.00 0.00 0.00 81 1012.7
20260906145102 86 209 0.0 2.0 0.00 0.00 0.00 82 1012.8
20260906145003 86 207 0.0 2.0 0.00 0.00 0.00 82 1012.7
20260906144903 86 206 0.0 2.0 0.00 0.00 0.00 83 1012.7
20260906144804 85 203 0.0 4.0 0.00 0.00 0.00 82 1012.7
20260906144655 85 203 0.0 4.0 0.00 0.00 0.00 82 1012.7
20260906144552 86 203 1.0 4.0 0.00 0.00 0.00 83 1012.7
20260906144449 86 203 1.0 4.0 0.00 0.00 0.00 83 1012.7
20260906144349 86 203 0.0 4.0 0.00 0.00 0.00 82 1012.7
20260906144248 86 204 0.0 4.0 0.00 0.00 0.00 82 1012.7
20260906144147 86 204 0.0 4.0 0.00 0.00 0.00 82 1012.7
20260906144044 86 204 0.0 4.0 0.00 0.00 0.00 82 1012.7
20260906143944 86 204 2.0 4.0 0.00 0.00 0.00 83 1012.7
20260906143842 86 206 2.0 4.0 0.00 0.00 0.00 83 1012.7
20260906143741 86 214 1.0 3.0 0.00 0.00 0.00 83 1012.7
20260906143638 86 216 0.0 3.0 0.00 0.00 0.00 83 1012.7
20260906143538 85 216 0.0 3.0 0.00 0.00 0.00 83 1012.7
20260906143437 85 213 1.0 3.0 0.00 0.00 0.00 83 1012.6
20260906143333 85 212 1.0 3.0 0.00 0.00 0.00 83 1012.6
20260906143232 85 212 0.0 3.0 0.00 0.00 0.00 83 1012.6
20260906143132 85 212 0.0 3.0 0.00 0.00 0.00 84 1012.7
20260906143032 85 212 0.0 3.0 0.00 0.00 0.00 84 1012.7
20260906142931 85 212 0.0 3.0 0.00 0.00 0.00 84 1012.7
20260906142831 85 212 2.0 3.0 0.00 0.00 0.00 84 1012.7
20260906142732 85 212 2.0 3.0 0.00 0.00 0.00 84 1012.7
20260906142632 85 212 1.0 3.0 0.00 0.00 0.00 84 1012.6
20260906142532 85 214 0.0 0.0 0.00 0.00 0.00 84 1012.7
20260906142432 85 214 0.0 0.0 0.00 0.00 0.00 84 1012.8
20260906142330 85 214 0.0 0.0 0.00 0.00 0.00 84 1012.7
20260906142232 85 214 0.0 0.0 0.00 0.00 0.00 84 1012.8
20260906142131 85 214 0.0 0.0 0.00 0.00 0.00 84 1012.8
20260906142033 85 214 0.0 0.0 0.00 0.00 0.00 84 1012.8
20260906141932 85 214 0.0 0.0 0.00 0.00 0.00 84 1012.8
20260906141833 85 214 0.0 0.0 0.00 0.00 0.00 84 1012.7
20260906141732 85 214 0.0 0.0 0.00 0.00 0.00 84 1012.7
20260906141632 85 214 0.0 0.0 0.00 0.00 0.00 84 1012.7
20260906141532 85 217 0.0 0.0 0.00 0.00 0.00 85 1012.7
20260906141431 85 217 0.0 0.0 0.00 0.00 0.00 84 1012.7
20260906141331 85 217 0.0 0.0 0.00 0.00 0.00 84 1012.7
20260906141230 84 217 0.0 0.0 0.00 0.00 0.00 84 1012.7
20260906141132 84 217 0.0 0.0 0.00 0.00 0.00 84 1012.8
20260906141032 84 217 0.0 0.0 0.00 0.00 0.00 84 1012.8
20260906140932 84 217 0.0 0.0 0.00 0.00 0.00 84 1012.7
20260906140833 85 217 0.0 0.0 0.00 0.00 0.00 84 1012.7
20260906140732 85 217 0.0 0.0 0.00 0.00 0.00 84 1012.7
20260906140632 84 217 0.0 0.0 0.00 0.00 0.00 84 1012.7
20260906140531 84 217 0.0 0.0 0.00 0.00 0.00 84 1012.7
20260906140431 84 217 0.0 0.0 0.00 0.00 0.00 85 1012.7
20260906140331 84 217 0.0 0.0 0.00 0.00 0.00 85 1012.7
20260906140234 84 217 0.0 0.0 0.00 0.00 0.00 85 1012.7
20260906140132 84 217 0.0 0.0 0.00 0.00 0.00 85 1012.7
20260906140032 84 217 0.0 0.0 0.00 0.00 0.00 85 1012.7
20260906135931 84 221 0.0 0.0 0.00 0.00 0.00 85 1012.7
20260906135831 84 221 0.0 0.0 0.00 0.00 0.00 85 1012.7
20260906135731 84 221 0.0 0.0 0.00 0.00 0.00 85 1012.7
20260906135630 84 221 0.0 0.0 0.00 0.00 0.00 85 1012.7
20260906135532 84 221 0.0 0.0 0.00 0.00 0.00 86 1012.7
20260906135432 84 224 0.0 0.0 0.00 0.00 0.00 85 1012.6
20260906135331 84 224 0.0 0.0 0.00 0.00 0.00 85 1012.6
20260906135229 84 226 0.0 0.0 0.00 0.00 0.00 85 1012.6
20260906135128 84 226 0.0 0.0 0.00 0.00 0.00 86 1012.6
20260906135025 84 227 0.0 0.0 0.00 0.00 0.00 86 1012.5
20260906134924 84 226 0.0 0.0 0.00 0.00 0.00 86 1012.6
20260906134823 84 221 0.0 0.0 0.00 0.00 0.00 86 1012.6
20260906134722 84 221 0.0 0.0 0.00 0.00 0.00 86 1012.6
20260906134620 84 221 0.0 0.0 0.00 0.00 0.00 86 1012.6
20260906134518 84 223 0.0 0.0 0.00 0.00 0.00 86 1012.6
20260906134418 84 223 0.0 0.0 0.00 0.00 0.00 87 1012.6
20260906134313 83 224 0.0 0.0 0.00 0.00 0.00 87 1012.6
20260906134212 83 226 0.0 0.0 0.00 0.00 0.00 87 1012.6
20260906134109 83 226 0.0 0.0 0.00 0.00 0.00 87 1012.6
20260906134010 83 223 0.0 0.0 0.00 0.00 0.00 87 1012.6
20260906133907 83 223 0.0 0.0 0.00 0.00 0.00 87 1012.6
20260906133808 83 223 0.0 0.0 0.00 0.00 0.00 87 1012.6
20260906133709 83 227 0.0 0.0 0.00 0.00 0.00 87 1012.6
20260906133610 83 226 0.0 0.0 0.00 0.00 0.00 87 1012.6
20260906133508 83 0 0.0 0.0 0.00 0.00 0.00 87 1012.5
20260906133409 83 0 0.0 0.0 0.00 0.00 0.00 88 1012.5
20260906133307 83 226 0.0 0.0 0.00 0.00 0.00 88 1012.5
20260906133210 83 221 0.0 0.0 0.00 0.00 0.00 88 1012.5
20260906133107 83 221 0.0 0.0 0.00 0.00 0.00 88 1012.5
20260906133008 82 221 0.0 0.0 0.00 0.00 0.00 88 1012.5
20260906132908 82 221 0.0 0.0 0.00 0.00 0.00 88 1012.5
20260906132809 82 220 0.0 0.0 0.00 0.00 0.00 88 1012.4
20260906132708 82 220 0.0 0.0 0.00 0.00 0.00 88 1012.4
20260906132607 82 220 0.0 0.0 0.00 0.00 0.00 88 1012.5
20260906132509 82 220 0.0 0.0 0.00 0.00 0.00 89 1012.4
20260906132409 82 227 0.0 0.0 0.00 0.00 0.00 89 1012.4
20260906132309 82 230 0.0 0.0 0.00 0.00 0.00 88 1012.4
20260906132208 82 228 0.0 0.0 0.00 0.00 0.00 89 1012.4
20260906132107 82 231 0.0 0.0 0.00 0.00 0.00 89 1012.4
20260906132007 82 228 0.0 0.0 0.00 0.00 0.00 89 1012.4
20260906131908 82 231 0.0 0.0 0.00 0.00 0.00 89 1012.4
20260906131808 82 230 0.0 0.0 0.00 0.00 0.00 89 1012.4
20260906131708 82 233 0.0 0.0 0.00 0.00 0.00 89 1012.4
20260906131608 82 0 0.0 0.0 0.00 0.00 0.00 89 1012.4
20260906131507 82 230 0.0 0.0 0.00 0.00 0.00 89 1012.3
20260906131408 82 0 0.0 0.0 0.00 0.00 0.00 89 1012.4
20260906131307 82 0 0.0 0.0 0.00 0.00 0.00 89 1012.4
20260906131208 82 0 0.0 0.0 0.00 0.00 0.00 89 1012.3
20260906131109 81 0 0.0 0.0 0.00 0.00 0.00 89 1012.3
20260906131009 81 94 0.0 0.0 0.00 0.00 0.00 89 1012.2
20260906130907 81 228 0.0 0.0 0.00 0.00 0.00 89 1012.2
20260906130809 81 226 0.0 0.0 0.00 0.00 0.00 89 1012.2
20260906130709 81 227 0.0 0.0 0.00 0.00 0.00 89 1012.2
20260906130606 81 228 0.0 0.0 0.00 0.00 0.00 89 1012.1
20260906130506 81 230 0.0 0.0 0.00 0.00 0.00 89 1012.2
20260906130408 81 0 0.0 0.0 0.00 0.00 0.00 90 1012.1
20260906130307 81 0 0.0 0.0 0.00 0.00 0.00 90 1012.1
20260906130207 81 0 0.0 0.0 0.00 0.00 0.00 90 1012.1
20260906130107 81 0 0.0 0.0 0.00 0.00 0.00 90 1012.1
20260906130007 81 0 0.0 0.0 0.00 0.00 0.00 90 1012.1
20260906125907 81 0 0.0 0.0 0.00 0.00 0.00 90 1012.1
20260906125806 81 0 0.0 0.0 0.00 0.00 0.00 90 1012.1
20260906125707 81 0 0.0 0.0 0.00 0.00 0.00 90 1012.0
20260906125607 81 0 0.0 0.0 0.00 0.00 0.00 90 1012.0
20260906125507 81 0 0.0 0.0 0.00 0.00 0.00 90 1012.0
20260906125406 81 0 0.0 0.0 0.00 0.00 0.00 90 1012.0
20260906125306 81 0 0.0 0.0 0.00 0.00 0.00 90 1012.0
20260906125207 81 0 0.0 0.0 0.00 0.00 0.00 90 1012.1
20260906125106 81 0 0.0 0.0 0.00 0.00 0.00 90 1012.0
20260906125006 81 0 0.0 0.0 0.00 0.00 0.00 90 1012.1
20260906124906 81 0 0.0 0.0 0.00 0.00 0.00 90 1012.1
20260906124806 81 0 0.0 0.0 0.00 0.00 0.00 90 1012.0
20260906124707 81 0 0.0 0.0 0.00 0.00 0.00 90 1012.0
20260906124606 81 0 0.0 0.0 0.00 0.00 0.00 90 1012.0
20260906124506 81 0 0.0 0.0 0.00 0.00 0.00 90 1011.9
20260906124409 81 0 0.0 0.0 0.00 0.00 0.00 90 1012.0
20260906124306 81 0 0.0 0.0 0.00 0.00 0.00 90 1011.9
20260906124208 81 0 0.0 0.0 0.00 0.00 0.00 90 1011.9
20260906124106 81 0 0.0 0.0 0.00 0.00 0.00 90 1011.9
20260906124006 81 0 0.0 0.0 0.00 0.00 0.00 90 1011.8
20260906123908 81 0 0.0 0.0 0.00 0.00 0.00 90 1011.9
20260906123806 81 0 0.0 0.0 0.00 0.00 0.00 90 1011.8
20260906123707 81 0 0.0 0.0 0.00 0.00 0.00 90 1011.8
20260906123607 81 0 0.0 0.0 0.00 0.00 0.00 90 1011.8
20260906123506 81 0 0.0 0.0 0.00 0.00 0.00 90 1011.8
20260906123406 81 0 0.0 0.0 0.00 0.00 0.00 90 1011.8
20260906123309 81 0 0.0 0.0 0.00 0.00 0.00 90 1011.8
20260906123206 81 0 0.0 0.0 0.00 0.00 0.00 90 1011.8
20260906123106 81 0 0.0 0.0 0.00 0.00 0.00 90 1011.8
20260906123006 81 0 0.0 0.0 0.00 0.00 0.00 90 1011.7
20260906122906 81 0 0.0 0.0 0.00 0.00 0.00 90 1011.7
20260906122807 81 0 0.0 0.0 0.00 0.00 0.00 90 1011.7
20260906122708 81 0 0.0 0.0 0.00 0.00 0.00 90 1011.7
20260906122606 81 0 0.0 0.0 0.00 0.00 0.00 90 1011.7
20260906122507 81 0 0.0 0.0 0.00 0.00 0.00 90 1011.7
20260906122406 81 0 0.0 0.0 0.00 0.00 0.00 90 1011.7
20260906122306 81 0 0.0 0.0 0.00 0.00 0.00 90 1011.7
20260906122206 81 0 0.0 0.0 0.00 0.00 0.00 90 1011.8
20260906122104 81 0 0.0 0.0 0.00 0.00 0.00 90 1011.7
20260906122004 81 0 0.0 0.0 0.00 0.00 0.00 90 1011.8
20260906121903 81 0 0.0 0.0 0.00 0.00 0.00 90 1011.7
20260906121804 81 0 0.0 0.0 0.00 0.00 0.00 90 1011.7
20260906121704 81 0 0.0 0.0 0.00 0.00 0.00 90 1011.6
20260906121604 81 0 0.0 0.0 0.00 0.00 0.00 90 1011.6
20260906121503 81 0 0.0 0.0 0.00 0.00 0.00 90 1011.7
20260906121404 81 0 0.0 0.0 0.00 0.00 0.00 90 1011.6
20260906121304 81 0 0.0 0.0 0.00 0.00 0.00 90 1011.6
20260906121204 81 0 0.0 0.0 0.00 0.00 0.00 90 1011.5
20260906121104 81 0 0.0 1.0 0.00 0.00 0.00 90 1011.6
20260906121005 81 0 0.0 1.0 0.00 0.00 0.00 89 1011.5
20260906120904 81 0 0.0 1.0 0.00 0.00 0.00 89 1011.5
20260906120804 81 0 0.0 1.0 0.00 0.00 0.00 89 1011.5
20260906120704 81 0 0.0 1.0 0.00 0.00 0.00 89 1011.5
20260906120603 81 0 0.0 1.0 0.00 0.00 0.00 89 1011.4
20260906120504 81 0 0.0 1.0 0.00 0.00 0.00 89 1011.6
20260906120403 81 0 0.0 1.0 0.00 0.00 0.00 89 1011.5
20260906120303 81 0 0.0 1.0 0.00 0.00 0.00 89 1011.5
20260906120204 81 0 0.0 1.0 0.00 0.00 0.00 89 1011.5
20260906120005 81 0 0.0 1.0 0.00 0.00 0.00 89 1011.3
20260906115904 81 0 0.0 2.0 0.00 0.00 0.00 89 1011.3
20260906115803 81 0 0.0 2.0 0.00 0.00 0.00 89 1011.3
20260906115704 81 0 0.0 2.0 0.00 0.00 0.00 89 1011.2
20260906115604 81 0 0.0 2.0 0.00 0.00 0.00 89 1011.2
20260906115504 81 0 0.0 2.0 0.00 0.00 0.00 89 1011.2
20260906115403 81 0 0.0 2.0 0.00 0.00 0.00 89 1011.2
20260906115306 81 0 0.0 2.0 0.00 0.00 0.00 89 1011.2
20260906115203 81 0 0.0 2.0 0.00 0.00 0.00 89 1011.2
20260906115104 81 0 1.0 2.0 0.00 0.00 0.00 89 1011.2
20260906115004 81 0 1.0 2.0 0.00 0.00 0.00 89 1011.2
20260906114903 81 0 1.0 2.0 0.00 0.00 0.00 89 1011.1
20260906114804 81 0 0.0 1.0 0.00 0.00 0.00 89 1011.2
20260906114703 81 0 0.0 1.0 0.00 0.00 0.00 89 1011.2
20260906114603 81 0 0.0 1.0 0.00 0.00 0.00 89 1011.2
20260906114505 81 0 0.0 1.0 0.00 0.00 0.00 89 1011.1
20260906114405 81 0 0.0 1.0 0.00 0.00 0.00 89 1011.2
20260906114304 81 0 0.0 1.0 0.00 0.00 0.00 89 1011.2
20260906114204 81 0 0.0 1.0 0.00 0.00 0.00 89 1011.2
20260906114103 81 0 0.0 1.0 0.00 0.00 0.00 89 1011.2
20260906114004 81 0 0.0 1.0 0.00 0.00 0.00 89 1011.2
20260906113903 81 0 0.0 0.0 0.00 0.00 0.00 89 1011.2
20260906113804 81 0 0.0 0.0 0.00 0.00 0.00 89 1011.2
20260906113704 81 0 0.0 0.0 0.00 0.00 0.00 89 1011.2
20260906113604 81 0 0.0 0.0 0.00 0.00 0.00 88 1011.2
20260906113505 81 0 0.0 0.0 0.00 0.00 0.00 88 1011.1
20260906113405 81 0 0.0 0.0 0.00 0.00 0.00 88 1011.2
20260906113303 81 0 0.0 0.0 0.00 0.00 0.00 88 1011.1
20260906113203 81 0 0.0 0.0 0.00 0.00 0.00 88 1011.1
20260906113103 81 0 0.0 0.0 0.00 0.00 0.00 88 1011.1
20260906113003 81 0 0.0 0.0 0.00 0.00 0.00 88 1011.1
20260906112903 81 0 0.0 0.0 0.00 0.00 0.00 88 1011.1
20260906112803 81 0 0.0 1.0 0.00 0.00 0.00 88 1011.1
20260906112703 81 0 0.0 1.0 0.00 0.00 0.00 88 1011.1
20260906112604 81 0 0.0 1.0 0.00 0.00 0.00 88 1011.1
20260906112502 81 0 0.0 1.0 0.00 0.00 0.00 88 1011.1
20260906112403 81 0 0.0 1.0 0.00 0.00 0.00 88 1011.1
20260906112306 81 0 0.0 1.0 0.00 0.00 0.00 88 1011.1
20260906112203 81 0 0.0 1.0 0.00 0.00 0.00 88 1011.2
20260906112101 81 0 0.0 1.0 0.00 0.00 0.00 88 1011.2
20260906112003 81 0 0.0 1.0 0.00 0.00 0.00 88 1011.2
20260906111902 81 0 0.0 1.0 0.00 0.00 0.00 88 1011.2
20260906111801 81 0 0.0 0.0 0.00 0.00 0.00 88 1011.2
20260906111702 81 0 0.0 0.0 0.00 0.00 0.00 88 1011.2
20260906111602 81 0 0.0 0.0 0.00 0.00 0.00 88 1011.2
20260906111502 81 0 0.0 0.0 0.00 0.00 0.00 88 1011.2
20260906111403 81 0 0.0 0.0 0.00 0.00 0.00 88 1011.1
20260906111300 81 0 0.0 0.0 0.00 0.00 0.00 88 1011.2
20260906111202 81 0 0.0 0.0 0.00 0.00 0.00 88 1011.1
20260906111100 81 0 0.0 0.0 0.00 0.00 0.00 88 1011.2
20260906111001 81 0 0.0 0.0 0.00 0.00 0.00 88 1011.1
20260906110900 81 0 0.0 0.0 0.00 0.00 0.00 88 1011.0
20260906110802 81 0 0.0 0.0 0.00 0.00 0.00 88 1011.1
20260906110702 81 0 0.0 0.0 0.00 0.00 0.00 88 1011.1
20260906110602 82 0 0.0 0.0 0.00 0.00 0.00 88 1011.2
20260906110500 82 0 0.0 0.0 0.00 0.00 0.00 88 1011.1
20260906110400 82 0 0.0 0.0 0.00 0.00 0.00 88 1011.1
20260906110301 82 0 0.0 0.0 0.00 0.00 0.00 88 1011.2
20260906110200 81 0 0.0 0.0 0.00 0.00 0.00 88 1011.1
20260906110002 81 0 0.0 0.0 0.00 0.00 0.00 88 1011.1
20260906105902 81 0 0.0 0.0 0.00 0.00 0.00 88 1011.1
20260906105801 0 0.0 0.0 0.00 0.00 0.00 1011.0
20260906105702 0 0.0 0.0 0.00 0.00 0.00 1011.1
20260906105601 0 0.0 0.0 0.00 0.00 0.00 1011.0
20260906105459 0 0 0.0 0.0 0.00 0.00 0.00 1011.1
20260906105400 0 0 0.0 0.0 0.00 0.00 0.00 1011.1
20260906105259 0 0 0.0 0.0 0.00 0.00 0.00 1011.1
20260906105200 0 0 0.0 0.0 0.00 0.00 0.00 1011.1
20260906105057 0 0 0.0 0.0 0.00 0.00 0.00 1011.1
20260906104958 0 0 0.0 0.0 0.00 0.00 0.00 1011.1
20260906104857 0 0 0.0 0.0 0.00 0.00 0.00 1011.1
20260906104758 0 0 0.0 0.0 0.00 0.00 0.00 1011.1
20260906104657 81 0 0.0 0.0 0.00 0.00 0.00 88 1011.0
20260906104557 81 0 0.0 0.0 0.00 0.00 0.00 88 1011.0
20260906104457 81 0 0.0 0.0 0.00 0.00 0.00 88 1011.0
20260906104357 81 0 0.0 0.0 0.00 0.00 0.00 88 1011.0
20260906104256 81 0 0.0 0.0 0.00 0.00 0.00 88 1010.9
20260906104155 81 0 0.0 0.0 0.00 0.00 0.00 88 1010.9
20260906104055 81 0 0.0 0.0 0.00 0.00 0.00 88 1011.0
20260906103955 81 0 0.0 0.0 0.00 0.00 0.00 88 1010.9
20260906103856 81 0 0.0 0.0 0.00 0.00 0.00 88 1010.8
20260906103755 81 0 0.0 0.0 0.00 0.00 0.00 88 1010.9
20260906103655 81 0 0.0 0.0 0.00 0.00 0.00 88 1010.8
20260906103554 81 0 0.0 0.0 0.00 0.00 0.00 88 1010.8
20260906103455 81 0 0.0 0.0 0.00 0.00 0.00 88 1010.8
20260906103356 81 0 0.0 0.0 0.00 0.00 0.00 88 1010.8
20260906103256 81 0 0.0 0.0 0.00 0.00 0.00 88 1010.7
20260906103157 81 0 0.0 0.0 0.00 0.00 0.00 88 1010.7
20260906103055 81 0 0.0 0.0 0.00 0.00 0.00 88 1010.8
20260906102955 81 0 0.0 0.0 0.00 0.00 0.00 88 1010.8
20260906102855 81 0 0.0 0.0 0.00 0.00 0.00 88 1010.6
20260906102755 81 0 0.0 0.0 0.00 0.00 0.00 88 1010.7
20260906102655 81 0 0.0 0.0 0.00 0.00 0.00 88 1010.7
20260906102555 81 0 0.0 0.0 0.00 0.00 0.00 88 1010.7
20260906102455 81 0 0.0 0.0 0.00 0.00 0.00 88 1010.7
20260906102354 81 0 0.0 0.0 0.00 0.00 0.00 88 1010.6
20260906102255 81 0 0.0 0.0 0.00 0.00 0.00 88 1010.6
20260906102156 81 0 0.0 0.0 0.00 0.00 0.00 88 1010.6
20260906102055 81 0 0.0 0.0 0.00 0.00 0.00 88 1010.6
20260906101955 81 0 0.0 0.0 0.00 0.00 0.00 88 1010.6
20260906101854 81 0 0.0 0.0 0.00 0.00 0.00 88 1010.6
20260906101755 81 0 0.0 0.0 0.00 0.00 0.00 88 1010.6
20260906101655 81 0 0.0 0.0 0.00 0.00 0.00 88 1010.6
20260906101554 81 0 0.0 0.0 0.00 0.00 0.00 88 1010.7
20260906101456 81 0 0.0 0.0 0.00 0.00 0.00 88 1010.6
20260906101355 82 0 0.0 0.0 0.00 0.00 0.00 88 1010.6
20260906101254 82 0 0.0 0.0 0.00 0.00 0.00 88 1010.6
20260906101155 82 0 0.0 0.0 0.00 0.00 0.00 88 1010.6
20260906101056 82 0 0.0 0.0 0.00 0.00 0.00 88 1010.6
20260906100953 81 0 0.0 0.0 0.00 0.00 0.00 88 1010.7
20260906100854 82 0 0.0 0.0 0.00 0.00 0.00 88 1010.6
20260906100754 82 0 0.0 0.0 0.00 0.00 0.00 87 1010.7
20260906100654 82 0 0.0 0.0 0.00 0.00 0.00 87 1010.6
20260906100554 82 0 0.0 0.0 0.00 0.00 0.00 87 1010.6
20260906100455 82 0 0.0 0.0 0.00 0.00 0.00 87 1010.7
20260906100354 82 0 0.0 0.0 0.00 0.00 0.00 87 1010.7
20260906100255 82 0 0.0 0.0 0.00 0.00 0.00 87 1010.7
20260906100144 82 0 0.0 0.0 0.00 0.00 0.00 87 1010.7
20260906100044 82 0 0.0 0.0 0.00 0.00 0.00 87 1010.6
20260906095944 82 0 0.0 0.0 0.00 0.00 0.00 87 1010.6
20260906095842 82 0 0.0 0.0 0.00 0.00 0.00 87 1010.6
20260906095739 82 0 0.0 0.0 0.00 0.00 0.00 87 1010.6
20260906095638 82 0 0.0 0.0 0.00 0.00 0.00 87 1010.7
20260906095539 82 0 0.0 0.0 0.00 0.00 0.00 87 1010.7
20260906095432 82 0 0.0 0.0 0.00 0.00 0.00 87 1010.6
20260906095332 82 0 0.0 0.0 0.00 0.00 0.00 87 1010.6
20260906095232 82 0 0.0 0.0 0.00 0.00 0.00 87 1010.6
20260906095131 82 0 0.0 0.0 0.00 0.00 0.00 87 1010.6
20260906095033 82 0 0.0 0.0 0.00 0.00 0.00 87 1010.6
20260906094933 82 0 0.0 0.0 0.00 0.00 0.00 87 1010.6
20260906094832 82 0 0.0 0.0 0.00 0.00 0.00 87 1010.6
20260906094732 82 0 0.0 0.0 0.00 0.00 0.00 87 1010.6
20260906094631 82 0 0.0 0.0 0.00 0.00 0.00 87 1010.6
20260906094532 0 0.0 0.0 0.00 0.00 0.00 1010.5
20260906094433 0 0.0 0.0 0.00 0.00 0.00 1010.7
20260906094332 82 0 0.0 0.0 0.00 0.00 0.00 87 1010.7
20260906094232 82 0 0.0 0.0 0.00 0.00 0.00 87 1010.7
20260906094133 82 0 0.0 0.0 0.00 0.00 0.00 87 1010.6
20260906094032 82 0 0.0 0.0 0.00 0.00 0.00 87 1010.5
20260906093931 82 0 0.0 0.0 0.00 0.00 0.00 87 1010.7
20260906093832 82 0 0.0 0.0 0.00 0.00 0.00 87 1010.6
20260906093732 82 0 0.0 0.0 0.00 0.00 0.00 87 1010.6
20260906093632 82 0 0.0 0.0 0.00 0.00 0.00 87 1010.6
20260906093533 82 0 0.0 0.0 0.00 0.00 0.00 87 1010.6
20260906093432 82 0 0.0 0.0 0.00 0.00 0.00 87 1010.6
20260906093309 82 0 0.0 0.0 0.00 0.00 0.00 87 1010.6
20260906093207 82 0 0.0 0.0 0.00 0.00 0.00 87 1010.6
20260906093106 82 0 0.0 0.0 0.00 0.00 0.00 87 1010.6
20260906093003 82 0 0.0 0.0 0.00 0.00 0.00 87 1010.6
20260906092903 82 0 0.0 0.0 0.00 0.00 0.00 87 1010.6
20260906092802 82 0 0.0 0.0 0.00 0.00 0.00 87 1010.5
20260906092702 82 0 0.0 0.0 0.00 0.00 0.00 87 1010.6
20260906092602 82 0 0.0 0.0 0.00 0.00 0.00 87 1010.6
20260906092504 82 0 0.0 0.0 0.00 0.00 0.00 87 1010.6
20260906092403 82 0 0.0 0.0 0.00 0.00 0.00 87 1010.6
20260906092306 82 0 0.0 0.0 0.00 0.00 0.00 87 1010.6
20260906092203 82 0 0.0 0.0 0.00 0.00 0.00 87 1010.6
20260906092103 82 0 0.0 0.0 0.00 0.00 0.00 87 1010.5
20260906092003 82 0 0.0 0.0 0.00 0.00 0.00 87 1010.6
20260906091904 82 0 0.0 0.0 0.00 0.00 0.00 87 1010.5
20260906091803 82 0 0.0 0.0 0.00 0.00 0.00 86 1010.6
20260906091702 82 0 0.0 0.0 0.00 0.00 0.00 87 1010.5
20260906091604 82 0 0.0 0.0 0.00 0.00 0.00 87 1010.5
20260906091502 82 0 0.0 0.0 0.00 0.00 0.00 86 1010.5
20260906091404 82 0 0.0 0.0 0.00 0.00 0.00 86 1010.5
20260906091303 82 0 0.0 0.0 0.00 0.00 0.00 86 1010.4
20260906091203 82 0 0.0 1.0 0.00 0.00 0.00 86 1010.4
20260906091103 82 0 0.0 1.0 0.00 0.00 0.00 86 1010.4
20260906091004 82 0 0.0 1.0 0.00 0.00 0.00 86 1010.3
20260906090902 82 0 0.0 1.0 0.00 0.00 0.00 86 1010.4
20260906090803 82 0 0.0 1.0 0.00 0.00 0.00 86 1010.3
20260906090701 82 0 0.0 1.0 0.00 0.00 0.00 86 1010.3
20260906090559 82 0 0.0 1.0 0.00 0.00 0.00 86 1010.3
20260906090458 82 0 0.0 1.0 0.00 0.00 0.00 86 1010.3
20260906090355 82 0 0.0 1.0 0.00 0.00 0.00 86 1010.3
20260906090255 82 0 0.0 1.0 0.00 0.00 0.00 86 1010.3
20260906090150 82 0 0.0 1.0 0.00 0.00 0.00 86 1010.4
20260906090050 82 0 0.0 1.0 0.00 0.00 0.00 86 1010.3
20260906085949 82 0 0.0 1.0 0.00 0.00 0.00 86 1010.4
20260906085848 82 0 0.0 1.0 0.00 0.00 0.00 86 1010.3
20260906085748 82 0 0.0 0.0 0.00 0.00 0.00 86 1010.3
20260906085648 82 0 0.0 0.0 0.00 0.00 0.00 86 1010.3
20260906085549 82 0 0.0 2.0 0.00 0.00 0.00 86 1010.3
20260906085448 82 0 0.0 2.0 0.00 0.00 0.00 86 1010.3
20260906085349 82 0 0.0 2.0 0.00 0.00 0.00 86 1010.4
20260906085250 82 0 0.0 2.0 0.00 0.00 0.00 86 1010.3
20260906085149 82 0 0.0 2.0 0.00 0.00 0.00 86 1010.3
20260906085048 82 0 0.0 2.0 0.00 0.00 0.00 86 1010.4
20260906084948 82 0 0.0 2.0 0.00 0.00 0.00 86 1010.4
20260906084851 82 0 0.0 2.0 0.00 0.00 0.00 86 1010.4
20260906084749 82 0 0.0 2.0 0.00 0.00 0.00 86 1010.3
20260906084650 82 0 1.0 2.0 0.00 0.00 0.00 86 1010.4
20260906084550 82 0 1.0 2.0 0.00 0.00 0.00 86 1010.4
20260906084448 82 0 0.0 2.0 0.00 0.00 0.00 86 1010.3
20260906084348 82 0 0.0 0.0 0.00 0.00 0.00 86 1010.3
20260906084248 82 0 0.0 0.0 0.00 0.00 0.00 86 1010.4
20260906084149 82 0 0.0 0.0 0.00 0.00 0.00 86 1010.4
20260906084049 82 0 0.0 0.0 0.00 0.00 0.00 86 1010.4
20260906083948 82 0 0.0 0.0 0.00 0.00 0.00 86 1010.4
20260906083849 82 0 0.0 0.0 0.00 0.00 0.00 86 1010.3
20260906083749 82 0 0.0 0.0 0.00 0.00 0.00 86 1010.4
20260906083648 82 0 0.0 0.0 0.00 0.00 0.00 86 1010.4
20260906083549 82 0 0.0 0.0 0.00 0.00 0.00 86 1010.4
20260906083448 82 0 0.0 0.0 0.00 0.00 0.00 86 1010.4
20260906083349 82 0 0.0 0.0 0.00 0.00 0.00 86 1010.4
20260906083248 82 0 0.0 0.0 0.00 0.00 0.00 86 1010.4
20260906083148 82 0 0.0 0.0 0.00 0.00 0.00 86 1010.4
20260906083048 82 0 0.0 0.0 0.00 0.00 0.00 86 1010.4
20260906082949 82 0 0.0 0.0 0.00 0.00 0.00 86 1010.4
20260906082849 82 0 0.0 0.0 0.00 0.00 0.00 86 1010.3
20260906082748 82 0 0.0 0.0 0.00 0.00 0.00 86 1010.4
20260906082649 82 0 0.0 0.0 0.00 0.00 0.00 86 1010.4
20260906082548 82 0 0.0 0.0 0.00 0.00 0.00 86 1010.4
20260906082449 82 0 0.0 0.0 0.00 0.00 0.00 86 1010.4
20260906082349 82 0 0.0 0.0 0.00 0.00 0.00 86 1010.4
20260906082249 82 0 0.0 0.0 0.00 0.00 0.00 86 1010.4
20260906082148 82 0 0.0 0.0 0.00 0.00 0.00 86 1010.3
20260906082049 82 0 0.0 0.0 0.00 0.00 0.00 86 1010.4
20260906081947 82 0 0.0 0.0 0.00 0.00 0.00 85 1010.4
20260906081848 82 0 0.0 0.0 0.00 0.00 0.00 85 1010.4
20260906081749 83 0 0.0 0.0 0.00 0.00 0.00 85 1010.4
20260906081648 83 0 0.0 0.0 0.00 0.00 0.00 85 1010.4
20260906081548 83 0 0.0 0.0 0.00 0.00 0.00 85 1010.4
20260906081436 83 0 0.0 0.0 0.00 0.00 0.00 85 1010.4
20260906081333 83 0 0.0 0.0 0.00 0.00 0.00 85 1010.5
20260906081231 83 0 0.0 0.0 0.00 0.00 0.00 85 1010.4
20260906081132 83 0 0.0 0.0 0.00 0.00 0.00 85 1010.5
20260906081032 83 0 0.0 0.0 0.00 0.00 0.00 85 1010.5
20260906080905 83 0 0.0 0.0 0.00 0.00 0.00 85 1010.5
20260906080802 83 0 0.0 0.0 0.00 0.00 0.00 85 1010.5
20260906080704 83 0 0.0 2.0 0.00 0.00 0.00 85 1010.5
20260906080601 83 0 0.0 2.0 0.00 0.00 0.00 85 1010.5
20260906080504 83 0 0.0 2.0 0.00 0.00 0.00 85 1010.5
20260906080403 83 0 0.0 2.0 0.00 0.00 0.00 85 1010.6
20260906080302 83 0 0.0 2.0 0.00 0.00 0.00 85 1010.5
20260906080203 83 0 0.0 2.0 0.00 0.00 0.00 85 1010.6
20260906080104 83 0 0.0 3.0 0.00 0.00 0.00 85 1010.6
20260906080004 83 0 0.0 3.0 0.00 0.00 0.00 85 1010.6
20260906075902 83 0 0.0 3.0 0.00 0.00 0.00 84 1010.6
20260906075802 83 0 1.0 3.0 0.00 0.00 0.00 84 1010.6
20260906075703 83 0 0.0 3.0 0.00 0.00 0.00 85 1010.6
20260906075603 83 0 0.0 3.0 0.00 0.00 0.00 84 1010.6
20260906075504 83 0 0.0 3.0 0.00 0.00 0.00 84 1010.6
20260906075402 83 0 1.0 3.0 0.00 0.00 0.00 84 1010.6
20260906075306 83 0 2.0 3.0 0.00 0.00 0.00 84 1010.6
20260906075203 83 0 1.0 3.0 0.00 0.00 0.00 84 1010.6
20260906075102 83 0 1.0 3.0 0.00 0.00 0.00 84 1010.6
20260906075004 83 0 1.0 2.0 0.00 0.00 0.00 84 1010.6
20260906074902 83 0 1.0 2.0 0.00 0.00 0.00 84 1010.6
20260906074803 83 0 0.0 2.0 0.00 0.00 0.00 84 1010.5
20260906074703 83 0 0.0 0.0 0.00 0.00 0.00 84 1010.6
20260906074604 83 0 0.0 0.0 0.00 0.00 0.00 84 1010.6
20260906074505 83 0 0.0 0.0 0.00 0.00 0.00 84 1010.6
20260906074402 83 0 0.0 0.0 0.00 0.00 0.00 84 1010.6
20260906074303 83 0 0.0 0.0 0.00 0.00 0.00 84 1010.7
20260906074201 83 0 0.0 0.0 0.00 0.00 0.00 84 1010.6
20260906074103 83 0 0.0 5.0 0.00 0.00 0.00 84 1010.6
20260906074004 83 0 3.0 5.0 0.00 0.00 0.00 84 1010.6
20260906073904 83 0 3.0 5.0 0.00 0.00 0.00 84 1010.7
20260906073803 83 0 3.0 5.0 0.00 0.00 0.00 84 1010.6
20260906073703 83 0 3.0 5.0 0.00 0.00 0.00 84 1010.7
20260906073604 83 0 3.0 5.0 0.00 0.00 0.00 84 1010.7
20260906073503 83 0 3.0 5.0 0.00 0.00 0.00 84 1010.6
20260906073403 83 0 3.0 5.0 0.00 0.00 0.00 84 1010.7
20260906073304 83 0 3.0 5.0 0.00 0.00 0.00 84 1010.8
20260906073203 83 0 3.0 5.0 0.00 0.00 0.00 84 1010.8
20260906073102 83 0 2.0 4.0 0.00 0.00 0.00 84 1010.7
20260906073005 83 0 2.0 4.0 0.00 0.00 0.00 84 1010.8
20260906072903 83 0 2.0 4.0 0.00 0.00 0.00 84 1010.8
20260906072803 83 0 2.0 4.0 0.00 0.00 0.00 84 1010.7
20260906072702 83 0 1.0 4.0 0.00 0.00 0.00 84 1010.8
20260906072604 83 0 0.0 4.0 0.00 0.00 0.00 84 1010.8
20260906072502 83 0 1.0 4.0 0.00 0.00 0.00 84 1010.8
20260906072404 83 0 2.0 4.0 0.00 0.00 0.00 84 1010.8
20260906072305 83 0 3.0 4.0 0.00 0.00 0.00 84 1010.8
20260906072203 83 0 0.0 3.0 0.00 0.00 0.00 84 1010.8
20260906072104 83 0 0.0 3.0 0.00 0.00 0.00 84 1010.8
20260906072004 83 0 0.0 3.0 0.00 0.00 0.00 84 1010.8
20260906071904 83 0 0.0 3.0 0.00 0.00 0.00 84 1010.8
20260906071802 83 0 0.0 3.0 0.00 0.00 0.00 84 1010.8
20260906071702 83 0 0.0 3.0 0.00 0.00 0.00 84 1010.8
20260906071602 83 0 1.0 3.0 0.00 0.00 0.00 84 1010.8
20260906071504 83 0 2.0 3.0 0.00 0.00 0.00 84 1010.8
20260906071403 83 0 1.0 3.0 0.00 0.00 0.00 84 1010.8
20260906071303 83 0 0.0 1.0 0.00 0.00 0.00 84 1010.8
20260906071202 83 0 0.0 1.0 0.00 0.00 0.00 84 1010.8
20260906071104 83 0 0.0 1.0 0.00 0.00 0.00 84 1010.8
20260906071004 83 0 0.0 2.0 0.00 0.00 0.00 84 1010.8
20260906070904 83 0 0.0 2.0 0.00 0.00 0.00 84 1010.9
20260906070803 83 0 0.0 3.0 0.00 0.00 0.00 84 1010.9
20260906070703 83 0 0.0 3.0 0.00 0.00 0.00 84 1010.8
20260906070603 83 0 0.0 3.0 0.00 0.00 0.00 84 1010.8
20260906070504 83 0 1.0 3.0 0.00 0.00 0.00 84 1010.8
20260906070404 83 0 1.0 3.0 0.00 0.00 0.00 84 1010.8
20260906070303 83 0 1.0 3.0 0.00 0.00 0.00 84 1010.8
20260906070204 83 0 1.0 3.0 0.00 0.00 0.00 84 1010.7
20260906070004 83 0 2.0 6.0 0.00 0.00 0.00 84 1010.8
20260906065903 83 0 2.0 6.0 0.00 0.00 0.00 84 1010.7
20260906065802 83 0 3.0 6.0 0.00 0.00 0.00 84 1010.8
20260906065702 83 0 2.0 6.0 0.00 0.00 0.00 84 1010.8
20260906065603 83 0 3.0 6.0 0.00 0.00 0.00 84 1010.8
20260906065505 83 0 3.0 6.0 0.00 0.00 0.00 84 1010.8
20260906065403 83 0 3.0 6.0 0.00 0.00 0.00 84 1010.8
20260906065305 83 0 3.0 6.0 0.00 0.00 0.00 84 1010.8
20260906065203 83 0 4.0 6.0 0.00 0.00 0.00 84 1010.9
20260906065103 83 0 2.0 6.0 0.00 0.00 0.00 84 1010.8
20260906065003 83 0 0.0 3.0 0.00 0.00 0.00 84 1010.9
20260906064858 83 0 0.0 3.0 0.00 0.00 0.00 84 1010.8
20260906064754 83 0 0.0 3.0 0.00 0.00 0.00 84 1010.8
20260906064649 83 0 0.0 3.0 0.00 0.00 0.00 84 1010.8
20260906064549 83 0 0.0 5.0 0.00 0.00 0.00 84 1010.9
20260906064446 83 0 2.0 5.0 0.00 0.00 0.00 84 1010.9
20260906064347 83 0 2.0 5.0 0.00 0.00 0.00 84 1010.9
20260906064245 83 0 1.0 5.0 0.00 0.00 0.00 84 1010.9
20260906064143 83 0 1.0 5.0 0.00 0.00 0.00 84 1010.9
20260906064044 83 0 1.0 5.0 0.00 0.00 0.00 84 1010.9
20260906063944 83 0 2.0 5.0 0.00 0.00 0.00 84 1011.0
20260906063844 83 0 2.0 5.0 0.00 0.00 0.00 84 1010.9
20260906063745 83 0 3.0 5.0 0.00 0.00 0.00 84 1010.9
20260906063644 83 0 3.0 5.0 0.00 0.00 0.00 84 1010.9
20260906063544 83 0 2.0 4.0 0.00 0.00 0.00 84 1010.9
20260906063444 83 0 2.0 4.0 0.00 0.00 0.00 84 1010.9
20260906063344 83 0 2.0 4.0 0.00 0.00 0.00 84 1010.8
20260906063243 83 0 2.0 4.0 0.00 0.00 0.00 84 1010.9
20260906063144 83 0 3.0 4.0 0.00 0.00 0.00 84 1010.9
20260906063043 83 0 3.0 4.0 0.00 0.00 0.00 84 1010.9
20260906062944 83 0 2.0 3.0 0.00 0.00 0.00 84 1010.8
20260906062846 83 0 2.0 3.0 0.00 0.00 0.00 84 1010.9
20260906062745 83 0 2.0 3.0 0.00 0.00 0.00 84 1010.9
20260906062644 83 0 1.0 2.0 0.00 0.00 0.00 84 1010.9
20260906062545 83 0 0.0 2.0 0.00 0.00 0.00 84 1010.9
20260906062446 83 0 1.0 2.0 0.00 0.00 0.00 84 1010.9
20260906062344 83 0 2.0 2.0 0.00 0.00 0.00 84 1011.0
20260906062245 83 0 1.0 2.0 0.00 0.00 0.00 84 1010.9
20260906062144 83 0 1.0 2.0 0.00 0.00 0.00 84 1011.0
20260906062043 83 0 1.0 2.0 0.00 0.00 0.00 84 1011.0
20260906061943 83 0 0.0 2.0 0.00 0.00 0.00 84 1011.0
20260906061846 83 0 1.0 2.0 0.00 0.00 0.00 84 1011.0
20260906061744 83 0 1.0 2.0 0.00 0.00 0.00 84 1011.0
20260906061646 83 0 1.0 2.0 0.00 0.00 0.00 84 1010.9
20260906061544 83 0 1.0 3.0 0.00 0.00 0.00 84 1010.9
20260906061444 83 0 1.0 4.0 0.00 0.00 0.00 84 1010.9
20260906061344 83 0 1.0 4.0 0.00 0.00 0.00 84 1010.9
20260906061244 83 0 0.0 4.0 0.00 0.00 0.00 84 1010.9
20260906061145 83 0 0.0 4.0 0.00 0.00 0.00 84 1010.9
20260906061044 83 0 0.0 4.0 0.00 0.00 0.00 84 1010.8
20260906060944 83 0 0.0 4.0 0.00 0.00 0.00 84 1010.9
20260906060843 83 0 0.0 4.0 0.00 0.00 0.00 84 1010.9
20260906060744 83 0 1.0 4.0 0.00 0.00 0.00 84 1010.9
20260906060644 83 0 2.0 4.0 0.00 0.00 0.00 84 1010.9
20260906060545 83 0 2.0 4.0 0.00 0.00 0.00 84 1010.9
20260906060444 83 0 0.0 3.0 0.00 0.00 0.00 84 1010.9
20260906060344 83 0 0.0 3.0 0.00 0.00 0.00 84 1010.9
20260906060245 83 0 0.0 3.0 0.00 0.00 0.00 84 1010.9
20260906060143 83 0 0.0 3.0 0.00 0.00 0.00 84 1010.8
20260906060044 83 0 0.0 3.0 0.00 0.00 0.00 84 1010.9
20260906055942 83 0 0.0 3.0 0.00 0.00 0.00 84 1010.9
20260906055843 83 0 0.0 3.0 0.00 0.00 0.00 84 1010.9
20260906055744 83 0 3.0 3.0 0.00 0.00 0.00 84 1010.9
20260906055643 83 0 3.0 3.0 0.00 0.00 0.00 84 1010.9
20260906055543 83 0 3.0 3.0 0.00 0.00 0.00 84 1011.0
20260906055444 83 0 2.0 4.0 0.00 0.00 0.00 84 1011.0
20260906055343 83 0 2.0 4.0 0.00 0.00 0.00 84 1011.0
20260906055244 83 0 2.0 4.0 0.00 0.00 0.00 84 1011.0
20260906055143 83 0 2.0 4.0 0.00 0.00 0.00 84 1011.0
20260906055044 83 0 1.0 4.0 0.00 0.00 0.00 84 1011.0
20260906054944 83 0 2.0 4.0 0.00 0.00 0.00 84 1011.0
20260906054842 83 0 1.0 4.0 0.00 0.00 0.00 84 1011.0
20260906054744 83 0 1.0 4.0 0.00 0.00 0.00 84 1011.0
20260906054644 83 0 2.0 4.0 0.00 0.00 0.00 84 1011.0
20260906054543 83 0 3.0 4.0 0.00 0.00 0.00 84 1011.0
20260906054443 83 0 2.0 4.0 0.00 0.00 0.00 84 1011.0
20260906054344 83 0 2.0 4.0 0.00 0.00 0.00 84 1010.9
20260906054243 83 0 2.0 4.0 0.00 0.00 0.00 84 1010.9
20260906054143 83 0 2.0 4.0 0.00 0.00 0.00 84 1010.9
20260906054042 83 0 2.0 4.0 0.00 0.00 0.00 84 1010.9
20260906053943 83 0 3.0 4.0 0.00 0.00 0.00 84 1010.9
20260906053842 83 0 3.0 4.0 0.00 0.00 0.00 84 1010.9
20260906053743 83 0 2.0 4.0 0.00 0.00 0.00 84 1011.0
20260906053643 83 0 2.0 5.0 0.00 0.00 0.00 84 1011.0
20260906053543 83 0 2.0 5.0 0.00 0.00 0.00 84 1010.9
20260906053442 83 0 0.0 5.0 0.00 0.00 0.00 85 1011.0
20260906053343 83 0 2.0 5.0 0.00 0.00 0.00 85 1010.9
20260906053243 83 0 2.0 5.0 0.00 0.00 0.00 85 1011.0
20260906053142 83 0 2.0 5.0 0.00 0.00 0.00 85 1010.9
20260906053043 83 0 2.0 5.0 0.00 0.00 0.00 85 1010.9
20260906052943 83 0 2.0 5.0 0.00 0.00 0.00 85 1010.9
20260906052842 83 0 2.0 5.0 0.00 0.00 0.00 85 1011.0
20260906052744 83 0 2.0 5.0 0.00 0.00 0.00 85 1010.9
20260906052642 83 0 3.0 5.0 0.00 0.00 0.00 85 1011.0
20260906052543 83 0 4.0 5.0 0.00 0.00 0.00 85 1011.0
20260906052442 83 0 2.0 5.0 0.00 0.00 0.00 85 1011.0
20260906052343 83 0 2.0 5.0 0.00 0.00 0.00 85 1011.0
20260906052243 83 0 3.0 6.0 0.00 0.00 0.00 85 1011.0
20260906052142 83 0 3.0 7.0 0.00 0.00 0.00 85 1011.0
20260906052044 83 0 3.0 7.0 0.00 0.00 0.00 84 1011.0
20260906051944 83 0 2.0 7.0 0.00 0.00 0.00 85 1011.0
20260906051841 83 0 2.0 7.0 0.00 0.00 0.00 84 1011.0
20260906051743 83 0 3.0 7.0 0.00 0.00 0.00 85 1011.0
20260906051642 83 0 3.0 7.0 0.00 0.00 0.00 85 1011.0
20260906051543 83 0 2.0 7.0 0.00 0.00 0.00 85 1011.0
20260906051441 83 0 3.0 7.0 0.00 0.00 0.00 84 1011.1
20260906051340 83 0 4.0 7.0 0.00 0.00 0.00 84 1011.1
20260906051242 83 0 4.0 7.0 0.00 0.00 0.00 84 1011.1
20260906051141 83 0 2.0 5.0 0.00 0.00 0.00 84 1011.1
20260906051043 83 0 1.0 4.0 0.00 0.00 0.00 84 1011.1
20260906050942 83 0 1.0 4.0 0.00 0.00 0.00 84 1011.1
20260906050842 83 0 2.0 4.0 0.00 0.00 0.00 84 1011.1
20260906050741 83 0 2.0 4.0 0.00 0.00 0.00 84 1011.1
20260906050641 83 0 3.0 5.0 0.00 0.00 0.00 84 1011.0
20260906050542 83 0 3.0 5.0 0.00 0.00 0.00 84 1011.0
20260906050442 83 0 3.0 5.0 0.00 0.00 0.00 84 1011.0
20260906050341 83 0 3.0 5.0 0.00 0.00 0.00 84 1011.0
20260906050243 83 0 3.0 5.0 0.00 0.00 0.00 84 1011.0
20260906050142 83 0 3.0 5.0 0.00 0.00 0.00 84 1010.9
20260906050042 83 0 3.0 5.0 0.00 0.00 0.00 84 1010.9
20260906045942 83 0 3.0 5.0 0.00 0.00 0.00 84 1010.9
20260906045841 83 0 3.0 5.0 0.00 0.00 0.00 84 1010.9
20260906045742 84 0 4.0 5.0 0.00 0.00 0.00 84 1010.9
20260906045643 84 0 3.0 5.0 0.00 0.00 0.00 84 1010.9
20260906045543 84 0 3.0 5.0 0.00 0.00 0.00 84 1011.0
20260906045442 84 0 3.0 5.0 0.00 0.00 0.00 84 1011.0
20260906045343 84 0 3.0 5.0 0.00 0.00 0.00 84 1010.9
20260906045243 84 0 3.0 5.0 0.00 0.00 0.00 84 1010.9
20260906045142 84 0 3.0 5.0 0.00 0.00 0.00 84 1011.0
20260906045041 84 0 3.0 5.0 0.00 0.00 0.00 84 1011.0
20260906044942 84 0 3.0 5.0 0.00 0.00 0.00 84 1011.1
20260906044842 84 0 3.0 5.0 0.00 0.00 0.00 84 1011.1
20260906044742 84 0 2.0 5.0 0.00 0.00 0.00 84 1011.1
20260906044642 84 0 2.0 5.0 0.00 0.00 0.00 84 1011.1
20260906044541 84 0 3.0 5.0 0.00 0.00 0.00 84 1011.1
20260906044442 84 0 3.0 5.0 0.00 0.00 0.00 84 1011.2
20260906044341 84 0 2.0 4.0 0.00 0.00 0.00 84 1011.1
20260906044242 84 0 2.0 4.0 0.00 0.00 0.00 84 1011.2
20260906044143 84 0 1.0 4.0 0.00 0.00 0.00 84 1011.2
20260906044042 84 0 2.0 4.0 0.00 0.00 0.00 84 1011.2
20260906043942 84 0 2.0 4.0 0.00 0.00 0.00 84 1011.2
20260906043842 84 0 2.0 4.0 0.00 0.00 0.00 84 1011.2
20260906043742 84 0 2.0 4.0 0.00 0.00 0.00 84 1011.2
20260906043643 84 0 2.0 4.0 0.00 0.00 0.00 84 1011.2
20260906043541 84 0 2.0 4.0 0.00 0.00 0.00 84 1011.1
20260906043443 84 0 3.0 4.0 0.00 0.00 0.00 84 1011.1
20260906043342 84 0 3.0 4.0 0.00 0.00 0.00 84 1011.1
20260906043240 84 0 3.0 4.0 0.00 0.00 0.00 84 1011.1
20260906043140 84 0 3.0 4.0 0.00 0.00 0.00 84 1011.0
20260906043040 84 0 3.0 4.0 0.00 0.00 0.00 84 1011.1
20260906042940 84 0 3.0 4.0 0.00 0.00 0.00 84 1011.1
20260906042839 84 0 3.0 4.0 0.00 0.00 0.00 84 1011.1
20260906042740 84 0 3.0 4.0 0.00 0.00 0.00 84 1011.1
20260906042639 84 0 2.0 4.0 0.00 0.00 0.00 84 1011.1
20260906042540 84 0 2.0 5.0 0.00 0.00 0.00 84 1011.1
20260906042440 84 0 2.0 5.0 0.00 0.00 0.00 84 1011.0
20260906042339 84 0 2.0 5.0 0.00 0.00 0.00 84 1011.1
20260906042239 84 0 2.0 5.0 0.00 0.00 0.00 84 1011.0
20260906042139 84 0 2.0 5.0 0.00 0.00 0.00 84 1011.0
20260906042040 84 0 1.0 5.0 0.00 0.00 0.00 84 1011.0
20260906041940 84 0 1.0 5.0 0.00 0.00 0.00 84 1011.1
20260906041839 84 0 1.0 5.0 0.00 0.00 0.00 84 1011.1
20260906041739 84 0 2.0 5.0 0.00 0.00 0.00 84 1011.1
20260906041640 84 0 2.0 5.0 0.00 0.00 0.00 84 1011.1
20260906041540 84 0 2.0 5.0 0.00 0.00 0.00 84 1011.1
20260906041438 84 0 2.0 5.0 0.00 0.00 0.00 84 1011.1
20260906041338 84 0 1.0 5.0 0.00 0.00 0.00 84 1011.1
20260906041238 84 0 1.0 5.0 0.00 0.00 0.00 84 1011.2
20260906041139 84 0 1.0 5.0 0.00 0.00 0.00 84 1011.1
20260906041039 84 0 2.0 5.0 0.00 0.00 0.00 84 1011.1
20260906040941 84 0 3.0 5.0 0.00 0.00 0.00 84 1011.1
20260906040838 84 0 3.0 5.0 0.00 0.00 0.00 84 1011.1
20260906040739 84 0 2.0 4.0 0.00 0.00 0.00 84 1011.1
20260906040639 84 0 2.0 4.0 0.00 0.00 0.00 84 1011.2
20260906040539 84 0 2.0 5.0 0.00 0.00 0.00 84 1011.2
20260906040438 84 0 3.0 5.0 0.00 0.00 0.00 84 1011.1
20260906040340 84 0 2.0 5.0 0.00 0.00 0.00 84 1011.1
20260906040240 84 0 2.0 5.0 0.00 0.00 0.00 84 1011.1
20260906040139 84 0 0.0 5.0 0.00 0.00 0.00 83 1011.2
20260906040038 84 0 0.0 5.0 0.00 0.00 0.00 83 1011.2
20260906035939 84 0 1.0 5.0 0.00 0.00 0.00 83 1011.2
20260906035839 84 0 2.0 5.0 0.00 0.00 0.00 83 1011.2
20260906035739 84 0 3.0 5.0 0.00 0.00 0.00 83 1011.3
20260906035639 84 0 3.0 5.0 0.00 0.00 0.00 83 1011.3
20260906035539 84 0 3.0 5.0 0.00 0.00 0.00 83 1011.2
20260906035439 84 0 3.0 5.0 0.00 0.00 0.00 84 1011.2
20260906035340 84 0 3.0 5.0 0.00 0.00 0.00 83 1011.2
20260906035238 84 0 3.0 5.0 0.00 0.00 0.00 83 1011.2
20260906035140 84 0 3.0 5.0 0.00 0.00 0.00 83 1011.2
20260906035038 84 0 2.0 5.0 0.00 0.00 0.00 83 1011.2
20260906034938 84 0 2.0 5.0 0.00 0.00 0.00 83 1011.2
20260906034838 84 0 3.0 5.0 0.00 0.00 0.00 83 1011.2
20260906034740 84 0 2.0 5.0 0.00 0.00 0.00 83 1011.2
20260906034637 84 0 2.0 5.0 0.00 0.00 0.00 83 1011.1
20260906034539 84 0 2.0 5.0 0.00 0.00 0.00 83 1011.1
20260906034439 84 0 2.0 5.0 0.00 0.00 0.00 83 1011.2
20260906034339 84 0 2.0 5.0 0.00 0.00 0.00 83 1011.2
20260906034239 84 0 3.0 5.0 0.00 0.00 0.00 83 1011.2
20260906034140 84 0 2.0 5.0 0.00 0.00 0.00 83 1011.2
20260906034039 84 0 1.0 5.0 0.00 0.00 0.00 83 1011.3
20260906033939 84 0 1.0 5.0 0.00 0.00 0.00 83 1011.2
20260906033839 84 0 2.0 5.0 0.00 0.00 0.00 83 1011.2
20260906033739 84 0 2.0 5.0 0.00 0.00 0.00 83 1011.3
20260906033638 84 0 1.0 5.0 0.00 0.00 0.00 83 1011.2
20260906033538 84 0 1.0 5.0 0.00 0.00 0.00 83 1011.2
20260906033437 84 0 2.0 5.0 0.00 0.00 0.00 83 1011.2
20260906033339 84 0 2.0 5.0 0.00 0.00 0.00 83 1011.2
20260906033238 84 0 2.0 5.0 0.00 0.00 0.00 83 1011.2
20260906033137 84 0 2.0 4.0 0.00 0.00 0.00 83 1011.2
20260906033040 84 0 2.0 5.0 0.00 0.00 0.00 83 1011.2
20260906032940 84 0 2.0 5.0 0.00 0.00 0.00 83 1011.1
20260906032839 84 0 2.0 5.0 0.00 0.00 0.00 83 1011.2
20260906032737 84 0 1.0 5.0 0.00 0.00 0.00 83 1011.1
20260906032640 84 0 2.0 5.0 0.00 0.00 0.00 83 1011.2
20260906032539 84 0 2.0 5.0 0.00 0.00 0.00 83 1011.1
20260906032437 84 0 2.0 5.0 0.00 0.00 0.00 83 1011.1
20260906032340 84 0 1.0 5.0 0.00 0.00 0.00 83 1011.2
20260906032237 84 0 2.0 5.0 0.00 0.00 0.00 83 1011.1
20260906032140 84 0 2.0 5.0 0.00 0.00 0.00 83 1011.1
20260906032040 84 0 2.0 5.0 0.00 0.00 0.00 83 1011.2
20260906031937 84 0 3.0 5.0 0.00 0.00 0.00 83 1011.2
20260906031837 84 0 4.0 5.0 0.00 0.00 0.00 83 1011.2
20260906031740 84 0 4.0 5.0 0.00 0.00 0.00 83 1011.2
20260906031640 84 0 4.0 5.0 0.00 0.00 0.00 83 1011.2
20260906031539 84 0 3.0 5.0 0.00 0.00 0.00 83 1011.2
20260906031438 84 0 3.0 5.0 0.00 0.00 0.00 83 1011.2
20260906031339 84 0 3.0 5.0 0.00 0.00 0.00 83 1011.2
20260906031237 84 0 3.0 5.0 0.00 0.00 0.00 83 1011.1
20260906031139 84 0 2.0 5.0 0.00 0.00 0.00 83 1011.1
20260906031037 84 0 3.0 5.0 0.00 0.00 0.00 83 1011.1
20260906030939 84 0 2.0 5.0 0.00 0.00 0.00 83 1011.1
20260906030838 84 0 3.0 5.0 0.00 0.00 0.00 83 1011.1
20260906030738 84 0 4.0 6.0 0.00 0.00 0.00 83 1011.0
20260906030639 84 0 4.0 6.0 0.00 0.00 0.00 83 1011.1
20260906030538 84 0 4.0 6.0 0.00 0.00 0.00 83 1011.0
20260906030438 84 0 4.0 6.0 0.00 0.00 0.00 83 1011.0
20260906030338 84 0 4.0 6.0 0.00 0.00 0.00 84 1011.0
20260906030238 84 0 4.0 6.0 0.00 0.00 0.00 84 1011.0
20260906030139 84 0 4.0 6.0 0.00 0.00 0.00 84 1011.0
20260906030038 84 0 4.0 6.0 0.00 0.00 0.00 84 1011.0
20260906025937 84 0 4.0 6.0 0.00 0.00 0.00 84 1011.1
20260906025838 84 0 4.0 6.0 0.00 0.00 0.00 84 1011.0
20260906025737 84 0 2.0 6.0 0.00 0.00 0.00 84 1011.0
20260906025637 84 0 2.0 6.0 0.00 0.00 0.00 84 1011.0
20260906025538 84 0 3.0 6.0 0.00 0.00 0.00 84 1011.0
20260906025437 84 0 3.0 5.0 0.00 0.00 0.00 84 1010.9
20260906025338 84 0 2.0 4.0 0.00 0.00 0.00 84 1010.9
20260906025238 84 0 2.0 4.0 0.00 0.00 0.00 85 1010.9
20260906025138 83 0 2.0 4.0 0.00 0.00 0.00 85 1011.0
20260906025038 83 0 3.0 4.0 0.00 0.00 0.00 85 1010.9
20260906024937 83 0 1.0 4.0 0.00 0.00 0.00 85 1010.8
20260906024833 83 0 1.0 3.0 0.00 0.00 0.00 85 1010.8
20260906024731 83 0 1.0 2.0 0.00 0.00 0.00 85 1010.8
20260906024630 83 0 1.0 2.0 0.00 0.00 0.00 86 1010.8
20260906024533 83 0 0.0 3.0 0.00 0.00 0.00 86 1010.7
20260906024432 83 0 0.0 3.0 0.00 0.00 0.00 86 1010.7
20260906024332 83 0 0.0 3.0 0.00 0.00 0.00 86 1010.7
20260906024232 83 0 0.0 4.0 0.00 0.00 0.00 86 1010.7
20260906024133 83 0 0.0 4.0 0.00 0.00 0.00 86 1010.7
20260906024033 83 0 0.0 4.0 0.00 0.00 0.00 85 1010.7
20260906023934 83 0 0.0 4.0 0.00 0.00 0.00 85 1010.6
20260906023831 83 0 1.0 4.0 0.00 0.00 0.00 85 1010.6
20260906023731 83 0 1.0 4.0 0.00 0.00 0.00 85 1010.7
20260906023632 83 0 1.0 4.0 0.00 0.00 0.00 85 1010.6
20260906023533 83 0 2.0 4.0 0.00 0.00 0.00 85 1010.6
20260906023432 83 0 2.0 4.0 0.00 0.00 0.00 85 1010.6
20260906023333 83 0 2.0 4.0 0.00 0.00 0.00 85 1010.7
20260906023232 83 0 2.0 4.0 0.00 0.00 0.00 85 1010.6
20260906023132 83 0 2.0 4.0 0.00 0.00 0.00 85 1010.6
20260906023031 83 0 2.0 6.0 0.00 0.00 0.00 85 1010.5
20260906022932 83 0 2.0 6.0 0.00 0.00 0.00 85 1010.5
20260906022832 83 0 3.0 6.0 0.00 0.00 0.00 85 1010.5
20260906022732 83 0 3.0 6.0 0.00 0.00 0.00 85 1010.4
20260906022633 83 0 3.0 6.0 0.00 0.00 0.00 85 1010.5
20260906022532 83 0 3.0 6.0 0.00 0.00 0.00 85 1010.5
20260906022433 83 0 3.0 6.0 0.00 0.00 0.00 85 1010.5
20260906022306 83 0 3.0 6.0 0.00 0.00 0.00 85 1010.5
20260906022203 83 0 3.0 6.0 0.00 0.00 0.00 85 1010.5
20260906022103 83 0 3.0 6.0 0.00 0.00 0.00 85 1010.5
20260906022006 83 0 3.0 5.0 0.00 0.00 0.00 85 1010.5
20260906021904 83 0 3.0 5.0 0.00 0.00 0.00 84 1010.5
20260906021803 83 0 2.0 5.0 0.00 0.00 0.00 84 1010.4
20260906021703 83 0 3.0 5.0 0.00 0.00 0.00 84 1010.4
20260906021602 83 0 3.0 5.0 0.00 0.00 0.00 84 1010.3
20260906021506 83 0 4.0 5.0 0.00 0.00 0.00 84 1010.3
20260906021402 84 0 4.0 5.0 0.00 0.00 0.00 84 1010.3
20260906021303 84 0 3.0 4.0 0.00 0.00 0.00 84 1010.3
20260906021204 84 0 3.0 4.0 0.00 0.00 0.00 84 1010.3
20260906021103 84 0 3.0 4.0 0.00 0.00 0.00 84 1010.3
20260906021004 84 0 3.0 4.0 0.00 0.00 0.00 84 1010.2
20260906020903 84 0 3.0 4.0 0.00 0.00 0.00 84 1010.2
20260906020803 84 0 3.0 4.0 0.00 0.00 0.00 84 1010.3
20260906020704 84 0 3.0 4.0 0.00 0.00 0.00 84 1010.2
20260906020603 84 0 2.0 4.0 0.00 0.00 0.00 84 1010.2
20260906020504 84 0 2.0 4.0 0.00 0.00 0.00 84 1010.3
20260906020404 84 0 0.0 4.0 0.00 0.00 0.00 83 1010.3
20260906020304 84 0 0.0 4.0 0.00 0.00 0.00 83 1010.3
20260906020203 84 0 0.0 4.0 0.00 0.00 0.00 83 1010.3
20260906020037 84 0 1.0 4.0 0.00 0.00 0.00 83 1010.3
20260906015935 84 0 2.0 4.0 0.00 0.00 0.00 83 1010.3
20260906015837 84 0 2.0 4.0 0.00 0.00 0.00 83 1010.3
20260906015735 84 0 1.0 3.0 0.00 0.00 0.00 83 1010.3
20260906015635 84 0 0.0 0.0 0.00 0.00 0.00 83 1010.2
20260906015535 84 111 0.0 4.0 0.00 0.00 0.00 83 1010.2
20260906015436 85 110 0.0 6.0 0.00 0.00 0.00 83 1010.2
20260906015336 85 110 0.0 6.0 0.00 0.00 0.00 83 1010.2
20260906015236 85 111 0.0 6.0 0.00 0.00 0.00 82 1010.2
20260906015135 85 128 0.0 6.0 0.00 0.00 0.00 82 1010.2
20260906015035 85 120 0.0 6.0 0.00 0.00 0.00 82 1010.2
20260906014937 85 120 0.0 6.0 0.00 0.00 0.00 81 1010.2
20260906014837 85 109 3.0 6.0 0.00 0.00 0.00 81 1010.2
20260906014732 85 109 3.0 6.0 0.00 0.00 0.00 81 1010.2
20260906014631 85 109 3.0 6.0 0.00 0.00 0.00 81 1010.2
20260906014531 85 109 3.0 6.0 0.00 0.00 0.00 81 1010.2
20260906014431 86 99 1.0 6.0 0.00 0.00 0.00 81 1010.3
20260906014332 86 165 0.0 4.0 0.00 0.00 0.00 81 1010.3
20260906014231 86 165 0.0 4.0 0.00 0.00 0.00 81 1010.3
20260906014132 86 165 0.0 4.0 0.00 0.00 0.00 81 1010.3
20260906014034 86 165 0.0 4.0 0.00 0.00 0.00 80 1010.3
20260906013933 86 165 0.0 4.0 0.00 0.00 0.00 80 1010.2
20260906013832 86 165 1.0 4.0 0.00 0.00 0.00 80 1010.3
20260906013733 86 166 2.0 4.0 0.00 0.00 0.00 80 1010.2
20260906013631 86 166 1.0 4.0 0.00 0.00 0.00 80 1010.1
20260906013532 86 169 2.0 6.0 0.00 0.00 0.00 80 1010.1
20260906013432 86 172 2.0 6.0 0.00 0.00 0.00 80 1010.0
20260906013332 86 188 1.0 6.0 0.00 0.00 0.00 80 1010.1
20260906013231 86 195 0.0 6.0 0.00 0.00 0.00 80 1010.1
20260906013131 86 195 1.0 6.0 0.00 0.00 0.00 80 1010.1
20260906013033 86 197 1.0 6.0 0.00 0.00 0.00 80 1010.1
20260906012932 86 196 1.0 6.0 0.00 0.00 0.00 79 1010.1
20260906012832 86 196 1.0 6.0 0.00 0.00 0.00 79 1010.1
20260906012731 86 197 2.0 6.0 0.00 0.00 0.00 79 1010.0
20260906012632 86 197 4.0 6.0 0.00 0.00 0.00 79 1010.0
20260906012532 86 178 3.0 9.0 0.00 0.00 0.00 79 1010.0
20260906012432 86 151 3.0 9.0 0.00 0.00 0.00 79 1009.9
20260906012332 86 149 4.0 9.0 0.00 0.00 0.00 79 1010.0
20260906012231 86 166 3.0 9.0 0.00 0.00 0.00 79 1010.0
20260906012133 86 183 2.0 9.0 0.00 0.00 0.00 79 1010.0
20260906012017 86 183 2.0 9.0 0.00 0.00 0.00 79 1009.9
20260906011910 86 183 2.0 9.0 0.00 0.00 0.00 79 1010.0
20260906011809 86 190 3.0 9.0 0.00 0.00 0.00 79 1009.9
20260906011710 86 190 4.0 9.0 0.00 0.00 0.00 79 1010.0
20260906011603 86 195 2.0 5.0 0.00 0.00 0.00 79 1010.0
20260906011503 86 188 2.0 5.0 0.00 0.00 0.00 79 1010.0
20260906011402 86 190 3.0 5.0 0.00 0.00 0.00 79 1010.0
20260906011302 86 186 3.0 5.0 0.00 0.00 0.00 79 1009.9
20260906011202 86 0 3.0 5.0 0.00 0.00 0.00 79 1009.9
20260906011103 86 0 3.0 5.0 0.00 0.00 0.00 79 1009.9
20260906011005 86 0 2.0 5.0 0.00 0.00 0.00 79 1009.9
20260906010904 86 0 2.0 5.0 0.00 0.00 0.00 79 1009.9
20260906010804 86 0 2.0 5.0 0.00 0.00 0.00 78 1009.9
20260906010703 86 0 2.0 5.0 0.00 0.00 0.00 78 1009.9
20260906010602 86 0 2.0 3.0 0.00 0.00 0.00 78 1009.9
20260906010504 0 0.0 0.0 0.00 0.00 0.00 1009.9
20260906010403 0 0.0 0.0 0.00 0.00 0.00 1009.9
20260906010304 0 0.0 0.0 0.00 0.00 0.00 1009.9
20260906010204 0 0.0 0.0 0.00 0.00 0.00 1010.0
20260906010104 0 0.0 0.0 0.00 0.00 0.00 1009.9
20260906010004 0 0.0 0.0 0.00 0.00 0.00 1009.9
20260906005903 0 0.0 0.0 0.00 0.00 0.00 1009.9
20260906005804 0 0.0 0.0 0.00 0.00 0.00 1009.9
20260906005703 0 0.0 0.0 0.00 0.00 0.00 1009.9
20260906005603 0 0.0 0.0 0.00 0.00 0.00 1010.0
20260906005504 0 0.0 0.0 0.00 0.00 0.00 1010.0
20260906005403 0 0.0 0.0 0.00 0.00 0.00 1009.9
20260906005306 0 0.0 0.0 0.00 0.00 0.00 1010.0
20260906005203 87 0 2.0 3.0 0.00 0.00 0.00 76 1010.0
20260906005104 87 0 2.0 3.0 0.00 0.00 0.00 76 1010.0
20260906005003 87 0 2.0 4.0 0.00 0.00 0.00 76 1010.0
20260906004904 87 0 2.0 4.0 0.00 0.00 0.00 76 1009.9
20260906004803 87 0 2.0 4.0 0.00 0.00 0.00 76 1010.0
20260906004703 87 0 2.0 4.0 0.00 0.00 0.00 76 1010.0
20260906004603 87 0 2.0 4.0 0.00 0.00 0.00 76 1010.0
20260906004504 87 0 2.0 4.0 0.00 0.00 0.00 76 1010.0
20260906004403 87 0 2.0 4.0 0.00 0.00 0.00 76 1010.0
20260906004303 87 0 2.0 4.0 0.00 0.00 0.00 76 1010.0
20260906004138 87 0 2.0 4.0 0.00 0.00 0.00 76 1010.0
20260906004037 87 0 2.0 4.0 0.00 0.00 0.00 76 1009.9
20260906003934 87 0 2.0 4.0 0.00 0.00 0.00 76 1010.0
20260906003834 87 0 2.0 4.0 0.00 0.00 0.00 75 1009.9
20260906003732 87 0 2.0 4.0 0.00 0.00 0.00 75 1009.9
20260906003632 87 168 1.0 4.0 0.00 0.00 0.00 75 1009.9
20260906003534 87 169 1.0 4.0 0.00 0.00 0.00 75 1009.9
20260906003431 87 169 0.0 4.0 0.00 0.00 0.00 75 1009.9
20260906003331 87 169 1.0 4.0 0.00 0.00 0.00 75 1009.9
20260906003232 88 171 1.0 4.0 0.00 0.00 0.00 74 1009.9
20260906003132 88 171 1.0 4.0 0.00 0.00 0.00 74 1009.9
20260906003032 88 171 1.0 4.0 0.00 0.00 0.00 74 1009.9
20260906002931 88 171 1.0 4.0 0.00 0.00 0.00 74 1009.9
20260906002832 88 171 0.0 4.0 0.00 0.00 0.00 74 1009.8
20260906002732 88 169 1.0 4.0 0.00 0.00 0.00 74 1009.8
20260906002632 88 171 1.0 4.0 0.00 0.00 0.00 74 1009.9
20260906002532 88 169 1.0 3.0 0.00 0.00 0.00 73 1009.8
20260906002431 88 169 1.0 3.0 0.00 0.00 0.00 73 1009.9
20260906002332 88 158 0.0 2.0 0.00 0.00 0.00 73 1009.9
20260906002232 88 159 0.0 3.0 0.00 0.00 0.00 72 1010.0
20260906002133 88 162 1.0 3.0 0.00 0.00 0.00 72 1009.9
20260906002033 88 162 1.0 3.0 0.00 0.00 0.00 72 1009.9
20260906001932 88 162 1.0 3.0 0.00 0.00 0.00 72 1010.0
20260906001832 88 162 1.0 3.0 0.00 0.00 0.00 72 1010.0
20260906001732 88 142 1.0 3.0 0.00 0.00 0.00 71 1010.0
20260906001632 88 144 1.0 4.0 0.00 0.00 0.00 71 1010.0
20260906001532 88 145 1.0 4.0 0.00 0.00 0.00 71 1010.0
20260906001432 88 142 1.0 4.0 0.00 0.00 0.00 71 1010.0
20260906001332 88 142 1.0 4.0 0.00 0.00 0.00 71 1010.0
20260906001233 89 142 2.0 4.0 0.00 0.00 0.00 70 1010.0
20260906001132 89 148 2.0 4.0 0.00 0.00 0.00 70 1009.9
20260906001032 89 162 3.0 4.0 0.00 0.00 0.00 70 1010.0
20260906000933 89 162 3.0 4.0 0.00 0.00 0.00 70 1010.1
20260906000832 89 162 3.0 4.0 0.00 0.00 0.00 70 1010.1
20260906000731 89 161 3.0 4.0 0.00 0.00 0.00 70 1010.1
20260906000632 89 197 1.0 3.0 0.00 0.00 0.00 69 1010.1
20260906000531 89 197 1.0 3.0 0.00 0.00 0.00 69 1010.1
20260906000433 89 199 1.0 3.0 0.00 0.00 0.00 69 1010.1
20260906000333 89 199 1.0 3.0 0.00 0.00 0.00 69 1010.1
20260906000226 89 200 1.0 3.0 0.00 0.00 0.00 69 1010.1
20260906000129 89 200 1.0 3.0 0.00 0.00 0.00 69 1010.1
20260906000026 89 200 1.0 4.0 0.00 0.00 0.00 69 1010.1
20260905235927 89 197 2.0 4.0 0.00 0.00 0.00 69 1010.1
20260905235826 89 199 2.0 4.0 0.00 0.00 0.00 68 1010.2
20260905235726 89 204 1.0 4.0 0.00 0.00 0.00 68 1010.2
20260905235627 89 204 1.0 4.0 0.00 0.00 0.00 68 1010.2
20260905235526 89 204 1.0 4.0 0.00 0.00 0.00 68 1010.2
20260905235425 89 202 2.0 4.0 0.00 0.00 0.00 68 1010.3
20260905235325 89 202 2.0 4.0 0.00 0.00 0.00 69 1010.3
20260905235227 89 202 2.0 4.0 0.00 0.00 0.00 69 1010.2
20260905235125 89 203 1.0 4.0 0.00 0.00 0.00 69 1010.3
20260905235027 89 207 0.0 2.0 0.00 0.00 0.00 69 1010.2
20260905234925 89 206 0.0 3.0 0.00 0.00 0.00 69 1010.4
20260905234828 89 204 0.0 3.0 0.00 0.00 0.00 69 1010.3
20260905234727 89 206 0.0 3.0 0.00 0.00 0.00 69 1010.4
20260905234626 89 204 0.0 3.0 0.00 0.00 0.00 69 1010.4
20260905234525 89 204 0.0 3.0 0.00 0.00 0.00 69 1010.4
20260905234426 89 204 1.0 3.0 0.00 0.00 0.00 69 1010.4
20260905234327 89 206 1.0 3.0 0.00 0.00 0.00 69 1010.4
20260905234225 89 206 1.0 3.0 0.00 0.00 0.00 69 1010.5
20260905234126 89 224 1.0 3.0 0.00 0.00 0.00 69 1010.4
20260905234027 89 226 1.0 3.0 0.00 0.00 0.00 70 1010.4
20260905233926 89 227 1.0 3.0 0.00 0.00 0.00 70 1010.4
20260905233826 89 228 1.0 3.0 0.00 0.00 0.00 70 1010.4
20260905233728 89 230 1.0 3.0 0.00 0.00 0.00 70 1010.5
20260905233627 89 231 1.0 3.0 0.00 0.00 0.00 70 1010.5
20260905233526 89 231 1.0 3.0 0.00 0.00 0.00 70 1010.5
20260905233426 89 231 1.0 3.0 0.00 0.00 0.00 70 1010.5
20260905233326 89 231 1.0 3.0 0.00 0.00 0.00 70 1010.5
20260905233226 89 231 1.0 3.0 0.00 0.00 0.00 70 1010.5
20260905233125 89 245 1.0 3.0 0.00 0.00 0.00 70 1010.4
20260905233025 89 244 0.0 0.0 0.00 0.00 0.00 70 1010.5
20260905232926 89 245 0.0 0.0 0.00 0.00 0.00 70 1010.4
20260905232827 89 245 0.0 0.0 0.00 0.00 0.00 70 1010.4
20260905232726 89 245 0.0 0.0 0.00 0.00 0.00 70 1010.4
20260905232626 89 247 0.0 0.0 0.00 0.00 0.00 70 1010.4
20260905232524 89 245 0.0 0.0 0.00 0.00 0.00 70 1010.4
20260905232426 89 247 0.0 0.0 0.00 0.00 0.00 70 1010.4
20260905232324 89 245 0.0 0.0 0.00 0.00 0.00 70 1010.4
20260905232225 89 245 0.0 0.0 0.00 0.00 0.00 69 1010.3
20260905232124 89 247 0.0 0.0 0.00 0.00 0.00 69 1010.4
20260905232024 89 251 0.0 0.0 0.00 0.00 0.00 69 1010.3
20260905231925 89 250 0.0 0.0 0.00 0.00 0.00 70 1010.2
20260905231825 89 0 0.0 0.0 0.00 0.00 0.00 70 1010.3
20260905231725 89 250 0.0 0.0 0.00 0.00 0.00 70 1010.3
20260905231625 89 250 0.0 1.0 0.00 0.00 0.00 70 1010.3
20260905231524 89 251 0.0 3.0 0.00 0.00 0.00 70 1010.3
20260905231426 89 250 0.0 4.0 0.00 0.00 0.00 70 1010.3
20260905231326 89 251 0.0 4.0 0.00 0.00 0.00 70 1010.2
20260905231226 89 250 0.0 4.0 0.00 0.00 0.00 70 1010.3
20260905231126 89 251 0.0 4.0 0.00 0.00 0.00 70 1010.2
20260905231024 89 252 0.0 4.0 0.00 0.00 0.00 70 1010.2
20260905230925 89 251 0.0 4.0 0.00 0.00 0.00 71 1010.2
20260905230824 89 251 0.0 4.0 0.00 0.00 0.00 71 1010.2
20260905230726 89 252 1.0 4.0 0.00 0.00 0.00 71 1010.1
20260905230625 89 251 3.0 4.0 0.00 0.00 0.00 71 1010.2
20260905230525 89 252 3.0 4.0 0.00 0.00 0.00 71 1010.2
20260905230424 89 251 2.0 4.0 0.00 0.00 0.00 71 1010.2
20260905230326 89 251 2.0 3.0 0.00 0.00 0.00 72 1010.2
20260905230225 89 251 1.0 3.0 0.00 0.00 0.00 71 1010.2
20260905230124 89 289 0.0 2.0 0.00 0.00 0.00 72 1010.2
20260905230025 89 289 0.0 2.0 0.00 0.00 0.00 73 1010.1
20260905225924 89 290 0.0 2.0 0.00 0.00 0.00 73 1010.1
20260905225826 89 290 0.0 2.0 0.00 0.00 0.00 73 1010.1
20260905225724 89 289 0.0 2.0 0.00 0.00 0.00 73 1010.0
20260905225625 89 0 1.0 2.0 0.00 0.00 0.00 73 1010.1
20260905225524 89 0 1.0 2.0 0.00 0.00 0.00 73 1010.0
20260905225425 89 292 1.0 2.0 0.00 0.00 0.00 73 1010.0
20260905225326 89 292 1.0 2.0 0.00 0.00 0.00 73 1009.9
20260905225225 89 292 1.0 2.0 0.00 0.00 0.00 73 1009.9
20260905225125 89 293 1.0 2.0 0.00 0.00 0.00 73 1010.0
20260905225025 89 290 1.0 2.0 0.00 0.00 0.00 73 1009.9
20260905224925 89 292 1.0 2.0 0.00 0.00 0.00 73 1010.0
20260905224825 88 285 1.0 2.0 0.00 0.00 0.00 74 1010.0
20260905224725 88 285 1.0 2.0 0.00 0.00 0.00 74 1009.9
20260905224624 88 285 1.0 2.0 0.00 0.00 0.00 74 1010.0
20260905224523 88 285 1.0 2.0 0.00 0.00 0.00 74 1009.9
20260905224423 88 285 1.0 2.0 0.00 0.00 0.00 74 1009.9
20260905224323 88 285 1.0 2.0 0.00 0.00 0.00 74 1009.9
20260905224223 88 285 1.0 2.0 0.00 0.00 0.00 74 1010.0
20260905224123 88 285 1.0 3.0 0.00 0.00 0.00 74 1009.9
20260905224023 88 285 1.0 3.0 0.00 0.00 0.00 74 1009.9
20260905223922 88 285 1.0 3.0 0.00 0.00 0.00 74 1010.0
20260905223822 88 285 1.0 3.0 0.00 0.00 0.00 74 1010.0
20260905223721 88 285 1.0 3.0 0.00 0.00 0.00 74 1010.0
20260905223622 88 285 1.0 3.0 0.00 0.00 0.00 74 1010.0
20260905223522 88 285 1.0 3.0 0.00 0.00 0.00 73 1010.1
20260905223421 88 283 1.0 5.0 0.00 0.00 0.00 73 1010.1
20260905223324 88 283 2.0 5.0 0.00 0.00 0.00 73 1010.1
20260905223223 88 283 2.0 5.0 0.00 0.00 0.00 73 1010.0
20260905223121 88 283 1.0 5.0 0.00 0.00 0.00 73 1010.0
20260905223023 89 283 1.0 5.0 0.00 0.00 0.00 72 1010.0
20260905222922 89 283 1.0 5.0 0.00 0.00 0.00 72 1010.0
20260905222823 89 283 1.0 6.0 0.00 0.00 0.00 72 1009.9
20260905222722 89 283 2.0 6.0 0.00 0.00 0.00 72 1009.9
20260905222622 89 283 3.0 6.0 0.00 0.00 0.00 72 1010.0
20260905222523 89 283 3.0 6.0 0.00 0.00 0.00 72 1009.9
20260905222421 89 269 4.0 6.0 0.00 0.00 0.00 72 1009.9
20260905222321 89 248 4.0 6.0 0.00 0.00 0.00 71 1009.9
20260905222223 89 275 4.0 6.0 0.00 0.00 0.00 71 1009.9
20260905222122 89 279 4.0 6.0 0.00 0.00 0.00 71 1010.0
20260905222022 90 279 4.0 6.0 0.00 0.00 0.00 71 1009.9
20260905221924 90 286 4.0 6.0 0.00 0.00 0.00 71 1009.9
20260905221823 90 292 3.0 4.0 0.00 0.00 0.00 70 1009.9
20260905221723 0 0.0 0.0 0.00 0.00 0.00 1009.9
20260905221622 90 240 3.0 5.0 0.00 0.00 0.00 70 1010.0
20260905221522 90 240 3.0 5.0 0.00 0.00 0.00 70 1010.0
20260905221422 90 240 3.0 5.0 0.00 0.00 0.00 70 1009.9
20260905221321 90 240 3.0 5.0 0.00 0.00 0.00 70 1009.9
20260905221221 90 240 3.0 5.0 0.00 0.00 0.00 70 1009.9
20260905221120 90 240 3.0 5.0 0.00 0.00 0.00 70 1009.9
20260905221021 90 240 3.0 5.0 0.00 0.00 0.00 70 1010.0
20260905220920 90 240 3.0 5.0 0.00 0.00 0.00 70 1009.9
20260905220820 90 240 3.0 5.0 0.00 0.00 0.00 70 1010.0
20260905220719 90 240 4.0 7.0 0.00 0.00 0.00 70 1009.9
20260905220621 90 243 3.0 7.0 0.00 0.00 0.00 70 1009.9
20260905220520 90 241 2.0 7.0 0.00 0.00 0.00 70 1009.9
20260905220420 90 243 3.0 7.0 0.00 0.00 0.00 70 1009.8
20260905220320 90 243 3.0 7.0 0.00 0.00 0.00 70 1009.9
20260905220221 90 243 3.0 7.0 0.00 0.00 0.00 70 1009.9
20260905220119 90 243 3.0 7.0 0.00 0.00 0.00 70 1009.9
20260905220020 90 241 3.0 7.0 0.00 0.00 0.00 70 1009.9
20260905215920 90 243 4.0 7.0 0.00 0.00 0.00 70 1009.9
20260905215819 90 241 4.0 7.0 0.00 0.00 0.00 70 1010.0
20260905215720 90 192 4.0 6.0 0.00 0.00 0.00 69 1009.9
20260905215620 90 230 3.0 6.0 0.00 0.00 0.00 69 1009.9
20260905215519 90 237 3.0 6.0 0.00 0.00 0.00 69 1009.9
20260905215420 91 237 2.0 6.0 0.00 0.00 0.00 68 1009.9
20260905215321 91 247 5.0 6.0 0.00 0.00 0.00 67 1009.9
20260905215219 91 234 5.0 6.0 0.00 0.00 0.00 67 1009.9
20260905215119 91 261 5.0 6.0 0.00 0.00 0.00 67 1009.9
20260905215020 92 282 4.0 5.0 0.00 0.00 0.00 65 1009.9
20260905214918 92 212 3.0 5.0 0.00 0.00 0.00 65 1009.8
20260905214819 92 206 2.0 5.0 0.00 0.00 0.00 65 1009.9
20260905214719 92 183 1.0 5.0 0.00 0.00 0.00 65 1009.9
20260905214620 91 183 1.0 5.0 0.00 0.00 0.00 65 1009.8
20260905214520 91 183 1.0 5.0 0.00 0.00 0.00 65 1009.9
20260905214419 91 183 0.0 5.0 0.00 0.00 0.00 65 1009.8
20260905214320 92 186 2.0 5.0 0.00 0.00 0.00 65 1009.8
20260905214220 92 186 2.0 5.0 0.00 0.00 0.00 65 1009.8
20260905214120 92 186 2.0 5.0 0.00 0.00 0.00 65 1009.8
20260905214019 92 186 2.0 5.0 0.00 0.00 0.00 65 1009.9
20260905213919 92 186 2.0 5.0 0.00 0.00 0.00 65 1009.8
20260905213818 92 186 2.0 5.0 0.00 0.00 0.00 65 1009.9
20260905213719 92 162 1.0 5.0 0.00 0.00 0.00 64 1010.0
20260905213620 92 162 2.0 5.0 0.00 0.00 0.00 65 1009.9
20260905213519 92 162 3.0 5.0 0.00 0.00 0.00 66 1009.9
20260905213418 92 196 2.0 5.0 0.00 0.00 0.00 66 1009.9
20260905213319 92 185 1.0 3.0 0.00 0.00 0.00 65 1009.9
20260905213219 92 185 1.0 3.0 0.00 0.00 0.00 66 1009.9
20260905213120 92 185 1.0 3.0 0.00 0.00 0.00 66 1009.9
20260905213020 92 185 1.0 3.0 0.00 0.00 0.00 66 1009.9
20260905212919 92 185 2.0 3.0 0.00 0.00 0.00 66 1010.0
20260905212818 92 185 2.0 3.0 0.00 0.00 0.00 66 1010.0
20260905212719 92 186 2.0 2.0 0.00 0.00 0.00 66 1010.0
20260905212619 92 186 2.0 2.0 0.00 0.00 0.00 65 1010.0
20260905212519 0 0.0 0.0 0.00 0.00 0.00 1010.0
20260905212419 0 0.0 0.0 0.00 0.00 0.00 1010.1
20260905212306 0 0.0 0.0 0.00 0.00 0.00 1010.1
20260905212204 0 0.0 0.0 0.00 0.00 0.00 1010.1
20260905212103 92 142 1.0 2.0 0.00 0.00 0.00 65 1010.1
20260905212004 92 142 1.0 3.0 0.00 0.00 0.00 65 1010.2
20260905211903 92 142 1.0 3.0 0.00 0.00 0.00 65 1010.2